| time (UTC) | temp F | wind direction | speed MPH | gust MPH | rain 1hr in | rain 24hr in | rain mn in | humidity % | barometer mb |
| 20260505195800 | 85 | 178 | 6.0 | 11.0 | 0.00 | 0.00 | 0.00 | 61 | 1003.5 |
| 20260505195700 | 85 | 215 | 6.0 | 15.0 | 0.00 | 0.00 | 0.00 | 62 | 1003.5 |
| 20260505195600 | 85 | 221 | 6.0 | 15.0 | 0.00 | 0.00 | 0.00 | 61 | 1003.5 |
| 20260505195500 | 85 | 204 | 5.0 | 14.0 | 0.00 | 0.00 | 0.00 | 61 | 1003.5 |
| 20260505195400 | 85 | 223 | 6.0 | 14.0 | 0.00 | 0.00 | 0.00 | 61 | 1003.4 |
| 20260505195300 | 85 | 221 | 6.0 | 14.0 | 0.00 | 0.00 | 0.00 | 60 | 1003.6 |
| 20260505195100 | 85 | 243 | 6.0 | 14.0 | 0.00 | 0.00 | 0.00 | 61 | 1003.5 |
| 20260505195000 | 85 | 186 | 5.0 | 14.0 | 0.00 | 0.00 | 0.00 | 63 | 1003.5 |
| 20260505194900 | 85 | 232 | 6.0 | 14.0 | 0.00 | 0.00 | 0.00 | 61 | 1003.4 |
| 20260505194759 | 85 | 188 | 6.0 | 14.0 | 0.00 | 0.00 | 0.00 | 63 | 1003.5 |
| 20260505194700 | 85 | 220 | 7.0 | 15.0 | 0.00 | 0.00 | 0.00 | 63 | 1003.5 |
| 20260505194619 | 85 | 251 | 6.0 | 12.0 | 0.00 | 0.00 | 0.00 | 63 | 1002.1 |
| 20260505194600 | 85 | 251 | 6.0 | 12.0 | 0.00 | 0.00 | 0.00 | 63 | 1003.4 |
| 20260505194459 | 85 | 235 | 7.0 | 12.0 | 0.00 | 0.00 | 0.00 | 63 | 1003.4 |
| 20260505194359 | 84 | 206 | 6.0 | 12.0 | 0.00 | 0.00 | 0.00 | 62 | 1003.5 |
| 20260505194259 | 84 | 213 | 7.0 | 12.0 | 0.00 | 0.00 | 0.00 | 63 | 1003.6 |
| 20260505194200 | 84 | 238 | 7.0 | 12.0 | 0.00 | 0.00 | 0.00 | 64 | 1003.5 |
| 20260505194000 | 84 | 228 | 6.0 | 13.0 | 0.00 | 0.00 | 0.00 | 63 | 1003.6 |
| 20260505193859 | 84 | 198 | 5.0 | 11.0 | 0.00 | 0.00 | 0.00 | 63 | 1003.6 |
| 20260505193759 | 84 | 218 | 6.0 | 11.0 | 0.00 | 0.00 | 0.00 | 62 | 1003.6 |
| 20260505193459 | 84 | 244 | 5.0 | 13.0 | 0.00 | 0.00 | 0.00 | 63 | 1003.6 |
| 20260505193359 | 84 | 238 | 5.0 | 13.0 | 0.00 | 0.00 | 0.00 | 63 | 1003.5 |
| 20260505193300 | 84 | 196 | 5.0 | 13.0 | 0.00 | 0.00 | 0.00 | 63 | 1003.6 |
| 20260505193200 | 84 | 248 | 4.0 | 13.0 | 0.00 | 0.00 | 0.00 | 62 | 1003.5 |
| 20260505193106 | 84 | 215 | 5.0 | 13.0 | 0.00 | 0.00 | 0.00 | 62 | 1002.2 |
| 20260505193059 | 84 | 215 | 5.0 | 13.0 | 0.00 | 0.00 | 0.00 | 62 | 1003.5 |
| 20260505192959 | 85 | 192 | 6.0 | 12.0 | 0.00 | 0.00 | 0.00 | 61 | 1003.5 |
| 20260505192800 | 85 | 202 | 5.0 | 12.0 | 0.00 | 0.00 | 0.00 | 62 | 1003.5 |
| 20260505192700 | 85 | 207 | 5.0 | 12.0 | 0.00 | 0.00 | 0.00 | 62 | 1003.5 |
| 20260505192601 | 85 | 207 | 4.0 | 12.0 | 0.00 | 0.00 | 0.00 | 61 | 1003.5 |
| 20260505192459 | 85 | 242 | 4.0 | 13.0 | 0.00 | 0.00 | 0.00 | 63 | 1003.5 |
| 20260505192401 | 85 | 219 | 4.0 | 13.0 | 0.00 | 0.00 | 0.00 | 63 | 1003.6 |
| 20260505192300 | 84 | 220 | 5.0 | 13.0 | 0.00 | 0.00 | 0.00 | 63 | 1003.5 |
| 20260505192159 | 84 | 246 | 7.0 | 13.0 | 0.00 | 0.00 | 0.00 | 62 | 1003.5 |
| 20260505192100 | 84 | 228 | 8.0 | 13.0 | 0.00 | 0.00 | 0.00 | 62 | 1003.6 |
| 20260505191901 | 84 | 226 | 7.0 | 13.0 | 0.00 | 0.00 | 0.00 | 62 | 1003.5 |
| 20260505191800 | 84 | 229 | 6.0 | 12.0 | 0.00 | 0.00 | 0.00 | 63 | 1003.5 |
| 20260505191701 | 84 | 242 | 6.0 | 12.0 | 0.00 | 0.00 | 0.00 | 63 | 1003.4 |
| 20260505191609 | 84 | 245 | 6.0 | 14.0 | 0.00 | 0.00 | 0.00 | 64 | 1002.1 |
| 20260505191601 | 84 | 241 | 7.0 | 14.0 | 0.00 | 0.00 | 0.00 | 64 | 1003.4 |
| 20260505191359 | 83 | 246 | 6.0 | 14.0 | 0.00 | 0.00 | 0.00 | 64 | 1003.2 |
| 20260505191300 | 83 | 201 | 7.0 | 14.0 | 0.00 | 0.00 | 0.00 | 62 | 1003.3 |
| 20260505191201 | 83 | 241 | 7.0 | 14.0 | 0.00 | 0.00 | 0.00 | 63 | 1003.4 |
| 20260505191100 | 83 | 268 | 6.0 | 14.0 | 0.00 | 0.00 | 0.00 | 65 | 1003.5 |
| 20260505190959 | 83 | 229 | 7.0 | 14.0 | 0.00 | 0.00 | 0.00 | 64 | 1003.3 |
| 20260505190900 | 83 | 223 | 7.0 | 14.0 | 0.00 | 0.00 | 0.00 | 64 | 1003.4 |
| 20260505190800 | 83 | 220 | 6.0 | 11.0 | 0.00 | 0.00 | 0.00 | 65 | 1003.4 |
| 20260505190701 | 83 | 203 | 5.0 | 10.0 | 0.00 | 0.00 | 0.00 | 65 | 1003.3 |
| 20260505190402 | 82 | 236 | 5.0 | 12.0 | 0.00 | 0.00 | 0.00 | 65 | 1003.4 |
| 20260505190300 | 82 | 221 | 6.0 | 12.0 | 0.00 | 0.00 | 0.00 | 65 | 1003.3 |
| 20260505190201 | 82 | 234 | 5.0 | 12.0 | 0.00 | 0.00 | 0.00 | 65 | 1003.4 |
| 20260505190100 | 82 | 191 | 5.0 | 12.0 | 0.00 | 0.00 | 0.00 | 65 | 1003.4 |
| 20260505190059 | 82 | 191 | 4.0 | 12.0 | 0.00 | 0.00 | 0.00 | 65 | 1002.1 |
| 20260505190000 | 82 | 216 | 5.0 | 12.0 | 0.00 | 0.00 | 0.00 | 65 | 1003.4 |
| 20260505185859 | 82 | 243 | 6.0 | 12.0 | 0.00 | 0.00 | 0.00 | 65 | 1003.6 |
| 20260505185759 | 82 | 215 | 6.0 | 12.0 | 0.00 | 0.00 | 0.00 | 65 | 1003.5 |
| 20260505185559 | 81 | 239 | 5.0 | 12.0 | 0.00 | 0.00 | 0.00 | 66 | 1003.5 |
| 20260505185458 | 81 | 184 | 5.0 | 12.0 | 0.00 | 0.00 | 0.00 | 66 | 1003.5 |
| 20260505185359 | 81 | 240 | 5.0 | 10.0 | 0.00 | 0.00 | 0.00 | 67 | 1003.6 |
| 20260505185259 | 81 | 229 | 5.0 | 10.0 | 0.00 | 0.00 | 0.00 | 67 | 1003.5 |
| 20260505185158 | 81 | 246 | 5.0 | 10.0 | 0.00 | 0.00 | 0.00 | 67 | 1003.5 |
| 20260505185058 | 81 | 248 | 4.0 | 14.0 | 0.00 | 0.00 | 0.00 | 67 | 1003.5 |
| 20260505184859 | 81 | 234 | 4.0 | 14.0 | 0.00 | 0.00 | 0.00 | 67 | 1003.5 |
| 20260505184800 | 81 | 238 | 5.0 | 14.0 | 0.00 | 0.00 | 0.00 | 66 | 1003.5 |
| 20260505184658 | 81 | 217 | 5.0 | 14.0 | 0.00 | 0.00 | 0.00 | 66 | 1003.5 |
| 20260505184558 | 81 | 242 | 5.0 | 14.0 | 0.00 | 0.00 | 0.00 | 67 | 1003.5 |
| 20260505184459 | 81 | 205 | 5.0 | 14.0 | 0.00 | 0.00 | 0.00 | 67 | 1003.5 |
| 20260505184258 | 81 | 227 | 6.0 | 13.0 | 0.00 | 0.00 | 0.00 | 66 | 1003.5 |
| 20260505184159 | 81 | 235 | 5.0 | 13.0 | 0.00 | 0.00 | 0.00 | 66 | 1003.4 |
| 20260505184058 | 81 | 197 | 4.0 | 12.0 | 0.00 | 0.00 | 0.00 | 66 | 1003.5 |
| 20260505183958 | 81 | 186 | 5.0 | 12.0 | 0.00 | 0.00 | 0.00 | 66 | 1003.5 |
| 20260505183758 | 81 | 191 | 7.0 | 12.0 | 0.00 | 0.00 | 0.00 | 66 | 1003.6 |
| 20260505183658 | 81 | 192 | 6.0 | 12.0 | 0.00 | 0.00 | 0.00 | 66 | 1003.6 |
| 20260505183559 | 81 | 227 | 5.0 | 12.0 | 0.00 | 0.00 | 0.00 | 66 | 1003.6 |
| 20260505183458 | 81 | 209 | 5.0 | 10.0 | 0.00 | 0.00 | 0.00 | 66 | 1003.6 |
| 20260505183159 | 81 | 235 | 5.0 | 10.0 | 0.00 | 0.00 | 0.00 | 66 | 1003.5 |
| 20260505183059 | 81 | 163 | 5.0 | 10.0 | 0.00 | 0.00 | 0.00 | 66 | 1003.5 |
| 20260505182957 | 81 | 236 | 4.0 | 13.0 | 0.00 | 0.00 | 0.00 | 67 | 1003.5 |
| 20260505182858 | 81 | 232 | 3.0 | 13.0 | 0.00 | 0.00 | 0.00 | 67 | 1003.5 |
| 20260505182757 | 80 | 190 | 4.0 | 12.0 | 0.00 | 0.00 | 0.00 | 68 | 1003.5 |
| 20260505182659 | 80 | 198 | 5.0 | 12.0 | 0.00 | 0.00 | 0.00 | 66 | 1003.5 |
| 20260505182559 | 80 | 236 | 5.0 | 12.0 | 0.00 | 0.00 | 0.00 | 66 | 1003.5 |
| 20260505182458 | 80 | 235 | 6.0 | 12.0 | 0.00 | 0.00 | 0.00 | 66 | 1003.5 |
| 20260505182358 | 80 | 269 | 6.0 | 12.0 | 0.00 | 0.00 | 0.00 | 66 | 1003.6 |
| 20260505182258 | 80 | 221 | 7.0 | 13.0 | 0.00 | 0.00 | 0.00 | 65 | 1003.7 |
| 20260505182158 | 80 | 221 | 6.0 | 13.0 | 0.00 | 0.00 | 0.00 | 66 | 1003.8 |
| 20260505181959 | 81 | 223 | 6.0 | 15.0 | 0.00 | 0.00 | 0.00 | 66 | 1003.6 |
| 20260505181757 | 81 | 217 | 7.0 | 16.0 | 0.00 | 0.00 | 0.00 | 66 | 1003.7 |
| 20260505181700 | 81 | 246 | 5.0 | 16.0 | 0.00 | 0.00 | 0.00 | 67 | 1003.6 |
| 20260505181558 | 81 | 257 | 4.0 | 16.0 | 0.00 | 0.00 | 0.00 | 67 | 1002.3 |
| 20260505181459 | 81 | 229 | 5.0 | 16.0 | 0.00 | 0.00 | 0.00 | 67 | 1003.6 |
| 20260505181359 | 81 | 229 | 6.0 | 16.0 | 0.00 | 0.00 | 0.00 | 66 | 1003.7 |
| 20260505181159 | 81 | 234 | 8.0 | 16.0 | 0.00 | 0.00 | 0.00 | 65 | 1003.6 |
| 20260505181058 | 81 | 235 | 9.0 | 16.0 | 0.00 | 0.00 | 0.00 | 65 | 1003.7 |
| 20260505180959 | 81 | 218 | 9.0 | 16.0 | 0.00 | 0.00 | 0.00 | 65 | 1003.5 |
| 20260505180858 | 81 | 248 | 8.0 | 14.0 | 0.00 | 0.00 | 0.00 | 65 | 1003.5 |
| 20260505180758 | 81 | 246 | 8.0 | 14.0 | 0.00 | 0.00 | 0.00 | 64 | 1003.6 |
| 20260505180458 | 81 | 202 | 5.0 | 14.0 | 0.00 | 0.00 | 0.00 | 65 | 1003.7 |
| 20260505180358 | 81 | 250 | 6.0 | 14.0 | 0.00 | 0.00 | 0.00 | 65 | 1003.6 |
| 20260505180258 | 81 | 181 | 8.0 | 14.0 | 0.00 | 0.00 | 0.00 | 64 | 1003.6 |
| 20260505180159 | 81 | 229 | 7.0 | 14.0 | 0.00 | 0.00 | 0.00 | 64 | 1003.6 |
| 20260505180100 | 82 | 218 | 7.0 | 14.0 | 0.00 | 0.00 | 0.00 | 65 | 1002.4 |
| 20260505180059 | 82 | 218 | 7.0 | 14.0 | 0.00 | 0.00 | 0.00 | 65 | 1003.7 |
| 20260505180001 | 82 | 188 | 6.0 | 14.0 | 0.00 | 0.00 | 0.00 | 68 | 1003.6 |
| 20260505175900 | 82 | 243 | 6.0 | 14.0 | 0.00 | 0.00 | 0.00 | 68 | 1003.6 |
| 20260505175801 | 81 | 190 | 5.0 | 12.0 | 0.00 | 0.00 | 0.00 | 68 | 1003.6 |
| 20260505175659 | 81 | 246 | 6.0 | 13.0 | 0.00 | 0.00 | 0.00 | 67 | 1003.6 |
| 20260505175600 | 81 | 198 | 6.0 | 14.0 | 0.00 | 0.00 | 0.00 | 67 | 1003.5 |
| 20260505175500 | 81 | 237 | 7.0 | 14.0 | 0.00 | 0.00 | 0.00 | 67 | 1003.4 |
| 20260505175401 | 81 | 229 | 6.0 | 14.0 | 0.00 | 0.00 | 0.00 | 67 | 1003.6 |
| 20260505175259 | 81 | 242 | 5.0 | 14.0 | 0.00 | 0.00 | 0.00 | 67 | 1003.5 |
| 20260505175101 | 81 | 242 | 5.0 | 14.0 | 0.00 | 0.00 | 0.00 | 69 | 1003.5 |
| 20260505175000 | 81 | 241 | 6.0 | 14.0 | 0.00 | 0.00 | 0.00 | 67 | 1003.5 |
| 20260505174859 | 80 | 194 | 7.0 | 14.0 | 0.00 | 0.00 | 0.00 | 68 | 1003.6 |
| 20260505174800 | 80 | 207 | 6.0 | 14.0 | 0.00 | 0.00 | 0.00 | 68 | 1003.7 |
| 20260505174700 | 80 | 236 | 5.0 | 14.0 | 0.00 | 0.00 | 0.00 | 68 | 1003.7 |
| 20260505174600 | 80 | 184 | 3.0 | 14.0 | 0.00 | 0.00 | 0.00 | 69 | 1003.6 |
| 20260505174559 | 80 | 184 | 3.0 | 14.0 | 0.00 | 0.00 | 0.00 | 69 | 1002.3 |
| 20260505174501 | 80 | 230 | 3.0 | 14.0 | 0.00 | 0.00 | 0.00 | 69 | 1003.6 |
| 20260505174358 | 80 | 186 | 4.0 | 14.0 | 0.00 | 0.00 | 0.00 | 69 | 1003.6 |
| 20260505174300 | 80 | 194 | 5.0 | 14.0 | 0.00 | 0.00 | 0.00 | 69 | 1003.6 |
| 20260505174159 | 80 | 204 | 6.0 | 14.0 | 0.00 | 0.00 | 0.00 | 68 | 1003.6 |
| 20260505174059 | 80 | 226 | 5.0 | 16.0 | 0.00 | 0.00 | 0.00 | 70 | 1003.6 |
| 20260505173959 | 80 | 225 | 5.0 | 16.0 | 0.00 | 0.00 | 0.00 | 70 | 1003.6 |
| 20260505173900 | 80 | 184 | 4.0 | 16.0 | 0.00 | 0.00 | 0.00 | 70 | 1003.7 |
| 20260505173759 | 80 | 215 | 4.0 | 16.0 | 0.00 | 0.00 | 0.00 | 70 | 1003.6 |
| 20260505173559 | 80 | 169 | 6.0 | 16.0 | 0.00 | 0.00 | 0.00 | 69 | 1003.5 |
| 20260505173459 | 80 | 196 | 6.0 | 16.0 | 0.00 | 0.00 | 0.00 | 68 | 1003.5 |
| 20260505173400 | 80 | 196 | 5.0 | 15.0 | 0.00 | 0.00 | 0.00 | 68 | 1003.5 |
| 20260505173259 | 80 | 204 | 6.0 | 15.0 | 0.00 | 0.00 | 0.00 | 68 | 1003.4 |
| 20260505173200 | 80 | 234 | 6.0 | 15.0 | 0.00 | 0.00 | 0.00 | 69 | 1003.5 |
| 20260505173113 | 80 | 229 | 6.0 | 15.0 | 0.00 | 0.00 | 0.00 | 68 | 1002.1 |
| 20260505173000 | 80 | 225 | 6.0 | 15.0 | 0.00 | 0.00 | 0.00 | 70 | 1003.4 |
| 20260505172900 | 80 | 211 | 6.0 | 15.0 | 0.00 | 0.00 | 0.00 | 70 | 1003.4 |
| 20260505172800 | 80 | 203 | 6.0 | 15.0 | 0.00 | 0.00 | 0.00 | 70 | 1003.3 |
| 20260505172659 | 79 | 186 | 6.0 | 15.0 | 0.00 | 0.00 | 0.00 | 70 | 1003.4 |
| 20260505172559 | 79 | 147 | 7.0 | 15.0 | 0.00 | 0.00 | 0.00 | 69 | 1003.4 |
| 20260505172500 | 79 | 210 | 7.0 | 15.0 | 0.00 | 0.00 | 0.00 | 69 | 1003.4 |
| 20260505172400 | 79 | 204 | 8.0 | 15.0 | 0.00 | 0.00 | 0.00 | 69 | 1003.5 |
| 20260505172200 | 79 | 210 | 8.0 | 16.0 | 0.00 | 0.00 | 0.00 | 70 | 1003.5 |
| 20260505172100 | 79 | 194 | 6.0 | 16.0 | 0.00 | 0.00 | 0.00 | 72 | 1003.6 |
| 20260505172000 | 79 | 188 | 5.0 | 16.0 | 0.00 | 0.00 | 0.00 | 72 | 1003.5 |
| 20260505171901 | 79 | 229 | 5.0 | 16.0 | 0.00 | 0.00 | 0.00 | 72 | 1003.5 |
| 20260505171801 | 78 | 218 | 7.0 | 16.0 | 0.00 | 0.00 | 0.00 | 72 | 1003.5 |
| 20260505171625 | 78 | 200 | 7.0 | 16.0 | 0.00 | 0.00 | 0.00 | 72 | 1002.3 |
| 20260505171600 | 78 | 200 | 7.0 | 16.0 | 0.00 | 0.00 | 0.00 | 72 | 1003.5 |
| 20260505171500 | 78 | 249 | 6.0 | 11.0 | 0.00 | 0.00 | 0.00 | 72 | 1003.6 |
| 20260505171400 | 78 | 219 | 5.0 | 10.0 | 0.00 | 0.00 | 0.00 | 74 | 1003.6 |
| 20260505171301 | 78 | 220 | 5.0 | 10.0 | 0.00 | 0.00 | 0.00 | 74 | 1003.7 |
| 20260505171201 | 77 | 220 | 4.0 | 10.0 | 0.00 | 0.00 | 0.00 | 74 | 1003.6 |
| 20260505171101 | 77 | 197 | 4.0 | 10.0 | 0.00 | 0.00 | 0.00 | 74 | 1003.5 |
| 20260505170959 | 77 | 186 | 4.0 | 10.0 | 0.00 | 0.00 | 0.00 | 74 | 1003.5 |
| 20260505170901 | 77 | 190 | 5.0 | 10.0 | 0.00 | 0.00 | 0.00 | 74 | 1003.5 |
| 20260505170701 | 77 | 236 | 5.0 | 12.0 | 0.00 | 0.00 | 0.00 | 74 | 1003.5 |
| 20260505170600 | 77 | 178 | 4.0 | 12.0 | 0.00 | 0.00 | 0.00 | 74 | 1003.5 |
| 20260505170459 | 77 | 206 | 3.0 | 12.0 | 0.00 | 0.00 | 0.00 | 75 | 1003.5 |
| 20260505170401 | 77 | 188 | 3.0 | 12.0 | 0.00 | 0.00 | 0.00 | 75 | 1003.5 |
| 20260505170200 | 77 | 236 | 4.0 | 12.0 | 0.00 | 0.00 | 0.00 | 75 | 1003.6 |
| 20260505170059 | 77 | 215 | 5.0 | 12.0 | 0.00 | 0.00 | 0.00 | 75 | 1003.6 |
| 20260505165958 | 77 | 184 | 5.0 | 12.0 | 0.00 | 0.00 | 0.00 | 75 | 1003.6 |
| 20260505165659 | 77 | 254 | 4.0 | 10.0 | 0.00 | 0.00 | 0.00 | 75 | 1003.6 |
| 20260505165559 | 76 | 189 | 4.0 | 10.0 | 0.00 | 0.00 | 0.00 | 75 | 1003.6 |
| 20260505165458 | 76 | 242 | 4.0 | 10.0 | 0.00 | 0.00 | 0.00 | 75 | 1003.6 |
| 20260505165358 | 76 | 171 | 3.0 | 11.0 | 0.00 | 0.00 | 0.00 | 75 | 1003.5 |
| 20260505165258 | 76 | 213 | 3.0 | 11.0 | 0.00 | 0.00 | 0.00 | 75 | 1003.5 |
| 20260505165158 | 76 | 240 | 4.0 | 11.0 | 0.00 | 0.00 | 0.00 | 75 | 1003.4 |
| 20260505165058 | 76 | 227 | 4.0 | 11.0 | 0.00 | 0.00 | 0.00 | 76 | 1003.4 |
| 20260505164958 | 76 | 182 | 4.0 | 11.0 | 0.00 | 0.00 | 0.00 | 76 | 1003.3 |
| 20260505164858 | 76 | 180 | 4.0 | 11.0 | 0.00 | 0.00 | 0.00 | 76 | 1003.3 |
| 20260505164758 | 76 | 198 | 4.0 | 11.0 | 0.00 | 0.00 | 0.00 | 76 | 1003.5 |
| 20260505164658 | 76 | 193 | 4.0 | 14.0 | 0.00 | 0.00 | 0.00 | 76 | 1003.5 |
| 20260505164605 | 76 | 250 | 4.0 | 14.0 | 0.00 | 0.00 | 0.00 | 76 | 1002.2 |
| 20260505164600 | 76 | 250 | 5.0 | 14.0 | 0.00 | 0.00 | 0.00 | 76 | 1003.5 |
| 20260505164458 | 76 | 219 | 5.0 | 14.0 | 0.00 | 0.00 | 0.00 | 76 | 1003.5 |
| 20260505164358 | 76 | 245 | 6.0 | 14.0 | 0.00 | 0.00 | 0.00 | 75 | 1003.5 |
| 20260505164259 | 76 | 202 | 6.0 | 14.0 | 0.00 | 0.00 | 0.00 | 75 | 1003.5 |
| 20260505164058 | 76 | 221 | 6.0 | 14.0 | 0.00 | 0.00 | 0.00 | 75 | 1003.4 |
| 20260505163958 | 76 | 220 | 7.0 | 14.0 | 0.00 | 0.00 | 0.00 | 75 | 1003.4 |
| 20260505163858 | 76 | 196 | 7.0 | 14.0 | 0.00 | 0.00 | 0.00 | 75 | 1003.4 |
| 20260505163759 | 76 | 198 | 7.0 | 14.0 | 0.00 | 0.00 | 0.00 | 75 | 1003.4 |
| 20260505163659 | 76 | 195 | 7.0 | 14.0 | 0.00 | 0.00 | 0.00 | 75 | 1003.3 |
| 20260505163458 | 76 | 192 | 5.0 | 12.0 | 0.00 | 0.00 | 0.00 | 75 | 1003.4 |
| 20260505163358 | 76 | 206 | 5.0 | 11.0 | 0.00 | 0.00 | 0.00 | 76 | 1003.6 |
| 20260505163158 | 76 | 214 | 6.0 | 11.0 | 0.00 | 0.00 | 0.00 | 75 | 1003.8 |
| 20260505163058 | 76 | 202 | 5.0 | 11.0 | 0.00 | 0.00 | 0.00 | 75 | 1002.5 |
| 20260505162958 | 76 | 199 | 5.0 | 11.0 | 0.00 | 0.00 | 0.00 | 75 | 1003.6 |
| 20260505162858 | 76 | 185 | 5.0 | 11.0 | 0.00 | 0.00 | 0.00 | 76 | 1003.5 |
| 20260505162759 | 76 | 186 | 5.0 | 11.0 | 0.00 | 0.00 | 0.00 | 76 | 1003.4 |
| 20260505162658 | 76 | 197 | 5.0 | 11.0 | 0.00 | 0.00 | 0.00 | 76 | 1003.4 |
| 20260505162558 | 76 | 180 | 4.0 | 11.0 | 0.00 | 0.00 | 0.00 | 76 | 1003.5 |
| 20260505162458 | 76 | 201 | 4.0 | 11.0 | 0.00 | 0.00 | 0.00 | 76 | 1003.6 |
| 20260505162359 | 76 | 198 | 4.0 | 11.0 | 0.00 | 0.00 | 0.00 | 75 | 1003.6 |
| 20260505162159 | 76 | 231 | 5.0 | 11.0 | 0.00 | 0.00 | 0.00 | 75 | 1003.1 |
| 20260505162058 | 76 | 206 | 5.0 | 11.0 | 0.00 | 0.00 | 0.00 | 75 | 1003.1 |
| 20260505162000 | 76 | 211 | 4.0 | 11.0 | 0.00 | 0.00 | 0.00 | 75 | 1003.2 |
| 20260505161858 | 76 | 213 | 6.0 | 14.0 | 0.00 | 0.00 | 0.00 | 75 | 1003.4 |
| 20260505161759 | 76 | 202 | 6.0 | 14.0 | 0.00 | 0.00 | 0.00 | 75 | 1003.6 |
| 20260505161658 | 76 | 191 | 6.0 | 14.0 | 0.00 | 0.00 | 0.00 | 75 | 1003.8 |
| 20260505161600 | 76 | 213 | 4.0 | 14.0 | 0.00 | 0.00 | 0.00 | 75 | 1002.6 |
| 20260505161558 | 76 | 213 | 4.0 | 14.0 | 0.00 | 0.00 | 0.00 | 75 | 1003.9 |
| 20260505161458 | 76 | 180 | 5.0 | 22.0 | 0.00 | 0.00 | 0.00 | 75 | 1003.9 |
| 20260505161358 | 76 | 198 | 5.0 | 22.0 | 0.00 | 0.00 | 0.00 | 75 | 1003.9 |
| 20260505161258 | 76 | 247 | 5.0 | 22.0 | 0.00 | 0.00 | 0.00 | 75 | 1003.8 |
| 20260505161200 | 76 | 207 | 7.0 | 22.0 | 0.00 | 0.00 | 0.00 | 75 | 1003.7 |
| 20260505161058 | 76 | 213 | 7.0 | 22.0 | 0.00 | 0.00 | 0.00 | 74 | 1003.5 |
| 20260505160758 | 76 | 230 | 7.0 | 22.0 | 0.00 | 0.00 | 0.00 | 74 | 1003.2 |
| 20260505160658 | 76 | 215 | 8.0 | 20.0 | 0.00 | 0.00 | 0.00 | 74 | 1003.1 |
| 20260505160558 | 76 | 187 | 8.0 | 17.0 | 0.00 | 0.00 | 0.00 | 74 | 1003.1 |
| 20260505160458 | 76 | 207 | 9.0 | 17.0 | 0.00 | 0.00 | 0.00 | 75 | 1003.1 |
| 20260505160359 | 76 | 201 | 7.0 | 17.0 | 0.00 | 0.00 | 0.00 | 75 | 1003.1 |
| 20260505160300 | 76 | 238 | 6.0 | 14.0 | 0.00 | 0.00 | 0.00 | 77 | 1003.2 |
| 20260505160159 | 76 | 197 | 5.0 | 12.0 | 0.00 | 0.00 | 0.00 | 77 | 1003.2 |
| 20260505153300 | 75 | 148 | 3.0 | 14.0 | 0.00 | 0.00 | 0.00 | 79 | 1003.4 |
| 20260505153159 | 75 | 227 | 4.0 | 16.0 | 0.00 | 0.00 | 0.00 | 78 | 1003.2 |
| 20260505153103 | 74 | 226 | 5.0 | 16.0 | 0.00 | 0.00 | 0.00 | 78 | 1002.0 |
| 20260505152959 | 75 | 190 | 6.0 | 16.0 | 0.00 | 0.00 | 0.00 | 77 | 1003.2 |
| 20260505152801 | 75 | 225 | 6.0 | 16.0 | 0.00 | 0.00 | 0.00 | 78 | 1003.2 |
| 20260505152600 | 75 | 183 | 6.0 | 16.0 | 0.00 | 0.00 | 0.00 | 78 | 1003.2 |
| 20260505152459 | 75 | 238 | 7.0 | 16.0 | 0.00 | 0.00 | 0.00 | 78 | 1003.1 |
| 20260505152400 | 75 | 251 | 7.0 | 16.0 | 0.00 | 0.00 | 0.00 | 78 | 1003.2 |
| 20260505152300 | 75 | 215 | 6.0 | 16.0 | 0.00 | 0.00 | 0.00 | 79 | 1003.1 |
| 20260505152001 | 74 | 191 | 7.0 | 16.0 | 0.00 | 0.00 | 0.00 | 78 | 1003.2 |
| 20260505151900 | 74 | 225 | 8.0 | 16.0 | 0.00 | 0.00 | 0.00 | 78 | 1003.3 |
| 20260505151759 | 74 | 191 | 8.0 | 17.0 | 0.00 | 0.00 | 0.00 | 78 | 1003.3 |
| 20260505151702 | 74 | 195 | 7.0 | 17.0 | 0.00 | 0.00 | 0.00 | 78 | 1003.3 |
| 20260505151600 | 74 | 186 | 5.0 | 17.0 | 0.00 | 0.00 | 0.00 | 78 | 1002.1 |
| 20260505151559 | 74 | 186 | 6.0 | 17.0 | 0.00 | 0.00 | 0.00 | 78 | 1003.4 |
| 20260505151500 | 74 | 225 | 7.0 | 17.0 | 0.00 | 0.00 | 0.00 | 79 | 1003.5 |
| 20260505151359 | 74 | 219 | 8.0 | 17.0 | 0.00 | 0.00 | 0.00 | 78 | 1003.4 |
| 20260505151259 | 74 | 215 | 9.0 | 17.0 | 0.00 | 0.00 | 0.00 | 78 | 1003.4 |
| 20260505151200 | 74 | 221 | 9.0 | 17.0 | 0.00 | 0.00 | 0.00 | 78 | 1003.5 |
| 20260505151059 | 74 | 232 | 9.0 | 17.0 | 0.00 | 0.00 | 0.00 | 78 | 1003.5 |
| 20260505151000 | 74 | 172 | 8.0 | 17.0 | 0.00 | 0.00 | 0.00 | 78 | 1003.5 |
| 20260505150859 | 74 | 209 | 7.0 | 18.0 | 0.00 | 0.00 | 0.00 | 78 | 1003.4 |
| 20260505150759 | 74 | 215 | 8.0 | 18.0 | 0.00 | 0.00 | 0.00 | 78 | 1003.6 |
| 20260505150701 | 74 | 226 | 10.0 | 18.0 | 0.00 | 0.00 | 0.00 | 78 | 1003.5 |
| 20260505150559 | 74 | 223 | 10.0 | 18.0 | 0.00 | 0.00 | 0.00 | 78 | 1003.5 |
| 20260505150459 | 74 | 205 | 11.0 | 18.0 | 0.00 | 0.00 | 0.00 | 78 | 1003.5 |
| 20260505150259 | 74 | 246 | 8.0 | 18.0 | 0.00 | 0.00 | 0.00 | 79 | 1003.5 |
| 20260505150200 | 74 | 184 | 7.0 | 16.0 | 0.00 | 0.00 | 0.00 | 79 | 1003.6 |
| 20260505150126 | 74 | 198 | 6.0 | 16.0 | 0.00 | 0.00 | 0.00 | 79 | 1002.3 |
| 20260505140600 | 72 | 198 | 4.0 | 16.0 | 0.00 | 0.00 | 0.00 | 82 | 1003.3 |
| 20260505140458 | 72 | 191 | 5.0 | 16.0 | 0.00 | 0.00 | 0.00 | 82 | 1003.2 |
| 20260505140359 | 72 | 184 | 6.0 | 16.0 | 0.00 | 0.00 | 0.00 | 82 | 1003.2 |
| 20260505140258 | 72 | 227 | 8.0 | 15.0 | 0.00 | 0.00 | 0.00 | 82 | 1003.2 |
| 20260505140158 | 72 | 196 | 8.0 | 15.0 | 0.00 | 0.00 | 0.00 | 82 | 1003.2 |
| 20260505130258 | 71 | 180 | 8.0 | 21.0 | 0.00 | 0.00 | 0.00 | 82 | 1003.1 |
| 20260505130157 | 71 | 191 | 8.0 | 21.0 | 0.00 | 0.00 | 0.00 | 82 | 1003.0 |
| 20260505130103 | 71 | 188 | 8.0 | 21.0 | 0.00 | 0.00 | 0.00 | 82 | 1002.0 |
| 20260505124957 | 71 | 199 | 7.0 | 15.0 | 0.00 | 0.00 | 0.00 | 82 | 1003.0 |
| 20260505124857 | 71 | 195 | 7.0 | 16.0 | 0.00 | 0.00 | 0.00 | 82 | 1003.1 |
| 20260505124657 | 71 | 193 | 5.0 | 16.0 | 0.00 | 0.00 | 0.00 | 82 | 1003.2 |
| 20260505124600 | 71 | 204 | 5.0 | 16.0 | 0.00 | 0.00 | 0.00 | 82 | 1001.8 |
| 20260505124558 | 71 | 204 | 6.0 | 16.0 | 0.00 | 0.00 | 0.00 | 82 | 1003.0 |
| 20260505124357 | 71 | 210 | 7.0 | 14.0 | 0.00 | 0.00 | 0.00 | 82 | 1002.9 |
| 20260505124257 | 71 | 195 | 6.0 | 14.0 | 0.00 | 0.00 | 0.00 | 82 | 1002.8 |
| 20260505124157 | 71 | 201 | 5.0 | 15.0 | 0.00 | 0.00 | 0.00 | 82 | 1002.9 |
| 20260505124057 | 71 | 173 | 5.0 | 15.0 | 0.00 | 0.00 | 0.00 | 82 | 1002.8 |
| 20260505123958 | 71 | 168 | 5.0 | 15.0 | 0.00 | 0.00 | 0.00 | 82 | 1002.9 |
| 20260505123757 | 71 | 203 | 7.0 | 15.0 | 0.00 | 0.00 | 0.00 | 82 | 1002.7 |
| 20260505123657 | 71 | 150 | 8.0 | 15.0 | 0.00 | 0.00 | 0.00 | 82 | 1002.8 |
| 20260505123557 | 71 | 178 | 7.0 | 15.0 | 0.00 | 0.00 | 0.00 | 82 | 1002.7 |
| 20260505123457 | 71 | 202 | 7.0 | 15.0 | 0.00 | 0.00 | 0.00 | 82 | 1002.9 |
| 20260505123356 | 71 | 207 | 7.0 | 15.0 | 0.00 | 0.00 | 0.00 | 82 | 1002.7 |
| 20260505123157 | 71 | 156 | 7.0 | 15.0 | 0.00 | 0.00 | 0.00 | 82 | 1002.7 |
| 20260505123102 | 71 | 197 | 7.0 | 15.0 | 0.00 | 0.00 | 0.00 | 82 | 1001.6 |
| 20260505122957 | 71 | 188 | 7.0 | 15.0 | 0.00 | 0.00 | 0.00 | 82 | 1002.8 |
| 20260505122857 | 71 | 201 | 6.0 | 15.0 | 0.00 | 0.00 | 0.00 | 82 | 1002.7 |
| 20260505122758 | 71 | 169 | 5.0 | 15.0 | 0.00 | 0.00 | 0.00 | 82 | 1002.7 |
| 20260505122658 | 71 | 166 | 5.0 | 15.0 | 0.00 | 0.00 | 0.00 | 82 | 1002.8 |
| 20260505122557 | 71 | 170 | 6.0 | 15.0 | 0.00 | 0.00 | 0.00 | 82 | 1002.7 |
| 20260505122457 | 71 | 180 | 6.0 | 15.0 | 0.00 | 0.00 | 0.00 | 82 | 1002.7 |
| 20260505122357 | 71 | 226 | 7.0 | 15.0 | 0.00 | 0.00 | 0.00 | 82 | 1002.7 |
| 20260505122257 | 71 | 211 | 6.0 | 15.0 | 0.00 | 0.00 | 0.00 | 82 | 1002.7 |
| 20260505122157 | 71 | 184 | 7.0 | 15.0 | 0.00 | 0.00 | 0.00 | 82 | 1002.6 |
| 20260505122057 | 71 | 182 | 8.0 | 15.0 | 0.00 | 0.00 | 0.00 | 82 | 1002.6 |
| 20260505121857 | 71 | 211 | 8.0 | 14.0 | 0.00 | 0.00 | 0.00 | 83 | 1002.5 |
| 20260505121757 | 71 | 181 | 7.0 | 14.0 | 0.00 | 0.00 | 0.00 | 83 | 1002.7 |
| 20260505121658 | 71 | 203 | 7.0 | 13.0 | 0.00 | 0.00 | 0.00 | 83 | 1002.6 |
| 20260505121624 | 71 | 213 | 6.0 | 13.0 | 0.00 | 0.00 | 0.00 | 83 | 1001.4 |
| 20260505121558 | 71 | 213 | 6.0 | 13.0 | 0.00 | 0.00 | 0.00 | 83 | 1002.6 |
| 20260505121457 | 71 | 194 | 6.0 | 11.0 | 0.00 | 0.00 | 0.00 | 83 | 1002.6 |
| 20260505121157 | 71 | 200 | 6.0 | 14.0 | 0.00 | 0.00 | 0.00 | 83 | 1002.5 |
| 20260505121057 | 71 | 181 | 6.0 | 14.0 | 0.00 | 0.00 | 0.00 | 83 | 1002.6 |
| 20260505120958 | 70 | 192 | 6.0 | 14.0 | 0.00 | 0.00 | 0.00 | 83 | 1002.5 |
| 20260505120858 | 70 | 183 | 6.0 | 14.0 | 0.00 | 0.00 | 0.00 | 83 | 1002.6 |
| 20260505120757 | 70 | 211 | 6.0 | 14.0 | 0.00 | 0.00 | 0.00 | 83 | 1002.6 |
| 20260505120659 | 70 | 238 | 6.0 | 14.0 | 0.00 | 0.00 | 0.00 | 83 | 1002.5 |
| 20260505120558 | 70 | 207 | 6.0 | 14.0 | 0.00 | 0.00 | 0.00 | 83 | 1002.5 |
| 20260505120457 | 70 | 228 | 7.0 | 14.0 | 0.00 | 0.00 | 0.00 | 83 | 1002.5 |
| 20260505120357 | 70 | 194 | 6.0 | 14.0 | 0.00 | 0.00 | 0.00 | 83 | 1002.5 |
| 20260505120257 | 70 | 184 | 6.0 | 14.0 | 0.00 | 0.00 | 0.00 | 83 | 1002.6 |
| 20260505120158 | 70 | 168 | 7.0 | 14.0 | 0.00 | 0.00 | 0.00 | 83 | 1002.5 |
| 20260505120058 | 70 | 174 | 6.0 | 14.0 | 0.00 | 0.00 | 0.00 | 83 | 1002.4 |
| 20260505115957 | 70 | 213 | 6.0 | 14.0 | 0.00 | 0.00 | 0.00 | 83 | 1002.5 |
| 20260505115657 | 70 | 193 | 7.0 | 12.0 | 0.00 | 0.00 | 0.00 | 83 | 1002.5 |
| 20260505115557 | 70 | 185 | 7.0 | 12.0 | 0.00 | 0.00 | 0.00 | 83 | 1002.4 |
| 20260505115457 | 70 | 190 | 6.0 | 12.0 | 0.00 | 0.00 | 0.00 | 83 | 1002.4 |
| 20260505115357 | 70 | 188 | 7.0 | 12.0 | 0.00 | 0.00 | 0.00 | 83 | 1002.4 |
| 20260505115257 | 70 | 202 | 7.0 | 12.0 | 0.00 | 0.00 | 0.00 | 83 | 1002.4 |
| 20260505115157 | 70 | 188 | 6.0 | 12.0 | 0.00 | 0.00 | 0.00 | 83 | 1002.4 |
| 20260505115058 | 70 | 196 | 5.0 | 12.0 | 0.00 | 0.00 | 0.00 | 83 | 1002.4 |
| 20260505114957 | 70 | 177 | 6.0 | 14.0 | 0.00 | 0.00 | 0.00 | 83 | 1002.4 |
| 20260505114857 | 70 | 210 | 7.0 | 14.0 | 0.00 | 0.00 | 0.00 | 83 | 1002.3 |
| 20260505114759 | 70 | 179 | 8.0 | 14.0 | 0.00 | 0.00 | 0.00 | 83 | 1002.4 |
| 20260505114658 | 70 | 211 | 7.0 | 14.0 | 0.00 | 0.00 | 0.00 | 83 | 1002.4 |
| 20260505114559 | 70 | 213 | 7.0 | 14.0 | 0.00 | 0.00 | 0.00 | 83 | 1002.5 |
| 20260505114557 | 70 | 213 | 6.0 | 14.0 | 0.00 | 0.00 | 0.00 | 83 | 1001.3 |
| 20260505114457 | 70 | 184 | 7.0 | 13.0 | 0.00 | 0.00 | 0.00 | 83 | 1002.5 |
| 20260505114357 | 70 | 197 | 7.0 | 13.0 | 0.00 | 0.00 | 0.00 | 83 | 1002.4 |
| 20260505114258 | 70 | 174 | 8.0 | 13.0 | 0.00 | 0.00 | 0.00 | 83 | 1002.4 |
| 20260505114157 | 70 | 192 | 7.0 | 12.0 | 0.00 | 0.00 | 0.00 | 83 | 1002.4 |
| 20260505113958 | 70 | 176 | 6.0 | 15.0 | 0.00 | 0.00 | 0.00 | 83 | 1002.5 |
| 20260505113857 | 70 | 178 | 7.0 | 15.0 | 0.00 | 0.00 | 0.00 | 83 | 1002.4 |
| 20260505113757 | 70 | 167 | 7.0 | 15.0 | 0.00 | 0.00 | 0.00 | 83 | 1002.4 |
| 20260505113658 | 70 | 192 | 6.0 | 15.0 | 0.00 | 0.00 | 0.00 | 83 | 1002.4 |
| 20260505113556 | 70 | 200 | 6.0 | 15.0 | 0.00 | 0.00 | 0.00 | 83 | 1002.4 |
| 20260505113457 | 70 | 220 | 6.0 | 15.0 | 0.00 | 0.00 | 0.00 | 83 | 1002.4 |
| 20260505113158 | 70 | 196 | 5.0 | 11.0 | 0.00 | 0.00 | 0.00 | 82 | 1002.5 |
| 20260505113103 | 70 | 182 | 4.0 | 11.0 | 0.00 | 0.00 | 0.00 | 82 | 1001.4 |
| 20260505113058 | 70 | 182 | 4.0 | 11.0 | 0.00 | 0.00 | 0.00 | 82 | 1002.5 |
| 20260505112958 | 70 | 210 | 3.0 | 11.0 | 0.00 | 0.00 | 0.00 | 82 | 1002.4 |
| 20260505112857 | 70 | 191 | 4.0 | 11.0 | 0.00 | 0.00 | 0.00 | 82 | 1002.5 |
| 20260505112757 | 70 | 202 | 4.0 | 11.0 | 0.00 | 0.00 | 0.00 | 82 | 1002.5 |
| 20260505112657 | 70 | 232 | 5.0 | 11.0 | 0.00 | 0.00 | 0.00 | 82 | 1002.5 |
| 20260505112558 | 70 | 178 | 5.0 | 11.0 | 0.00 | 0.00 | 0.00 | 82 | 1002.6 |
| 20260505112457 | 70 | 210 | 6.0 | 12.0 | 0.00 | 0.00 | 0.00 | 82 | 1002.6 |
| 20260505112357 | 71 | 184 | 6.0 | 12.0 | 0.00 | 0.00 | 0.00 | 82 | 1002.5 |
| 20260505112257 | 70 | 178 | 5.0 | 12.0 | 0.00 | 0.00 | 0.00 | 82 | 1002.5 |
| 20260505112158 | 70 | 184 | 5.0 | 12.0 | 0.00 | 0.00 | 0.00 | 82 | 1002.4 |
| 20260505112057 | 71 | 200 | 5.0 | 12.0 | 0.00 | 0.00 | 0.00 | 82 | 1002.4 |
| 20260505111957 | 71 | 178 | 5.0 | 12.0 | 0.00 | 0.00 | 0.00 | 82 | 1002.4 |
| 20260505111857 | 71 | 190 | 5.0 | 12.0 | 0.00 | 0.00 | 0.00 | 82 | 1002.4 |
| 20260505111758 | 71 | 182 | 5.0 | 14.0 | 0.00 | 0.00 | 0.00 | 82 | 1002.4 |
| 20260505111657 | 71 | 183 | 5.0 | 14.0 | 0.00 | 0.00 | 0.00 | 82 | 1002.4 |
| 20260505111557 | 71 | 148 | 5.0 | 14.0 | 0.00 | 0.00 | 0.00 | 82 | 1001.2 |
| 20260505111457 | 70 | 196 | 5.0 | 14.0 | 0.00 | 0.00 | 0.00 | 82 | 1002.3 |
| 20260505111357 | 71 | 202 | 5.0 | 14.0 | 0.00 | 0.00 | 0.00 | 82 | 1002.3 |
| 20260505111257 | 71 | 236 | 5.0 | 14.0 | 0.00 | 0.00 | 0.00 | 82 | 1002.2 |
| 20260505111057 | 71 | 185 | 8.0 | 14.0 | 0.00 | 0.00 | 0.00 | 82 | 1002.2 |
| 20260505110757 | 71 | 185 | 5.0 | 14.0 | 0.00 | 0.00 | 0.00 | 82 | 1002.3 |
| 20260505110658 | 71 | 202 | 5.0 | 14.0 | 0.00 | 0.00 | 0.00 | 82 | 1002.4 |
| 20260505110557 | 71 | 196 | 5.0 | 14.0 | 0.00 | 0.00 | 0.00 | 82 | 1002.3 |
| 20260505110458 | 71 | 195 | 5.0 | 14.0 | 0.00 | 0.00 | 0.00 | 82 | 1002.3 |
| 20260505110358 | 71 | 174 | 6.0 | 14.0 | 0.00 | 0.00 | 0.00 | 82 | 1002.2 |
| 20260505110257 | 71 | 194 | 6.0 | 14.0 | 0.00 | 0.00 | 0.00 | 82 | 1002.2 |
| 20260505110157 | 71 | 184 | 7.0 | 15.0 | 0.00 | 0.00 | 0.00 | 82 | 1002.3 |
| 20260505102157 | 71 | 192 | 5.0 | 14.0 | 0.00 | 0.00 | 0.00 | 81 | 1002.7 |
| 20260505102057 | 71 | 201 | 6.0 | 14.0 | 0.00 | 0.00 | 0.00 | 81 | 1002.7 |
| 20260505101958 | 71 | 192 | 6.0 | 14.0 | 0.00 | 0.00 | 0.00 | 81 | 1002.6 |
| 20260505101856 | 71 | 201 | 7.0 | 14.0 | 0.00 | 0.00 | 0.00 | 81 | 1002.7 |
| 20260505101757 | 71 | 218 | 7.0 | 14.0 | 0.00 | 0.00 | 0.00 | 81 | 1002.6 |
| 20260505101700 | 71 | 177 | 6.0 | 14.0 | 0.00 | 0.00 | 0.00 | 81 | 1002.7 |
| 20260505101559 | 71 | 217 | 6.0 | 14.0 | 0.00 | 0.00 | 0.00 | 81 | 1001.6 |
| 20260505101557 | 71 | 217 | 7.0 | 14.0 | 0.00 | 0.00 | 0.00 | 81 | 1002.7 |
| 20260505101457 | 71 | 190 | 7.0 | 14.0 | 0.00 | 0.00 | 0.00 | 81 | 1002.6 |
| 20260505101357 | 71 | 195 | 7.0 | 14.0 | 0.00 | 0.00 | 0.00 | 81 | 1002.6 |
| 20260505101057 | 71 | 233 | 7.0 | 14.0 | 0.00 | 0.00 | 0.00 | 81 | 1002.5 |
| 20260505100957 | 71 | 200 | 8.0 | 14.0 | 0.00 | 0.00 | 0.00 | 81 | 1002.7 |
| 20260505100757 | 71 | 200 | 7.0 | 17.0 | 0.00 | 0.00 | 0.00 | 81 | 1002.7 |
| 20260505100657 | 71 | 184 | 6.0 | 17.0 | 0.00 | 0.00 | 0.00 | 81 | 1002.6 |
| 20260505100557 | 71 | 213 | 6.0 | 17.0 | 0.00 | 0.00 | 0.00 | 81 | 1002.5 |
| 20260505100458 | 71 | 199 | 8.0 | 17.0 | 0.00 | 0.00 | 0.00 | 82 | 1002.5 |
| 20260505100357 | 71 | 196 | 8.0 | 17.0 | 0.00 | 0.00 | 0.00 | 82 | 1002.5 |
| 20260505100257 | 71 | 213 | 8.0 | 17.0 | 0.00 | 0.00 | 0.00 | 82 | 1002.6 |
| 20260505100136 | 71 | 201 | 8.0 | 17.0 | 0.00 | 0.00 | 0.00 | 82 | 1001.4 |
| 20260505100057 | 71 | 201 | 9.0 | 17.0 | 0.00 | 0.00 | 0.00 | 82 | 1002.5 |
| 20260505095958 | 71 | 163 | 7.0 | 17.0 | 0.00 | 0.00 | 0.00 | 82 | 1002.3 |
| 20260505095858 | 71 | 202 | 7.0 | 14.0 | 0.00 | 0.00 | 0.00 | 82 | 1002.4 |
| 20260505095757 | 71 | 181 | 7.0 | 14.0 | 0.00 | 0.00 | 0.00 | 82 | 1002.4 |
| 20260505095658 | 71 | 213 | 7.0 | 14.0 | 0.00 | 0.00 | 0.00 | 82 | 1002.5 |
| 20260505095457 | 71 | 210 | 6.0 | 14.0 | 0.00 | 0.00 | 0.00 | 82 | 1002.5 |
| 20260505095258 | 71 | 225 | 7.0 | 14.0 | 0.00 | 0.00 | 0.00 | 82 | 1002.4 |
| 20260505095058 | 71 | 200 | 9.0 | 14.0 | 0.00 | 0.00 | 0.00 | 82 | 1002.4 |
| 20260505094957 | 71 | 225 | 8.0 | 14.0 | 0.00 | 0.00 | 0.00 | 82 | 1002.4 |
| 20260505094857 | 70 | 182 | 7.0 | 14.0 | 0.00 | 0.00 | 0.00 | 82 | 1002.4 |
| 20260505094657 | 71 | 167 | 7.0 | 14.0 | 0.00 | 0.00 | 0.00 | 82 | 1002.4 |
| 20260505094559 | 71 | 175 | 7.0 | 14.0 | 0.00 | 0.00 | 0.00 | 82 | 1002.3 |
| 20260505094557 | 71 | 175 | 7.0 | 14.0 | 0.00 | 0.00 | 0.00 | 82 | 1001.2 |
| 20260505094457 | 71 | 177 | 7.0 | 14.0 | 0.00 | 0.00 | 0.00 | 81 | 1002.4 |
| 20260505094358 | 71 | 176 | 7.0 | 14.0 | 0.00 | 0.00 | 0.00 | 81 | 1002.4 |
| 20260505094259 | 71 | 154 | 8.0 | 14.0 | 0.00 | 0.00 | 0.00 | 81 | 1002.4 |
| 20260505093958 | 71 | 195 | 7.0 | 17.0 | 0.00 | 0.00 | 0.00 | 81 | 1002.4 |
| 20260505093859 | 71 | 227 | 7.0 | 17.0 | 0.00 | 0.00 | 0.00 | 81 | 1002.5 |
| 20260505093758 | 71 | 194 | 8.0 | 18.0 | 0.00 | 0.00 | 0.00 | 81 | 1002.6 |
| 20260505093658 | 71 | 193 | 9.0 | 18.0 | 0.00 | 0.00 | 0.00 | 81 | 1002.6 |
| 20260505093558 | 71 | 191 | 8.0 | 18.0 | 0.00 | 0.00 | 0.00 | 81 | 1002.5 |
| 20260505093458 | 71 | 198 | 9.0 | 18.0 | 0.00 | 0.00 | 0.00 | 81 | 1002.5 |
| 20260505093357 | 71 | 188 | 9.0 | 18.0 | 0.00 | 0.00 | 0.00 | 81 | 1002.5 |
| 20260505093257 | 71 | 173 | 9.0 | 18.0 | 0.00 | 0.00 | 0.00 | 81 | 1002.6 |
| 20260505093158 | 71 | 191 | 8.0 | 18.0 | 0.00 | 0.00 | 0.00 | 81 | 1002.6 |
| 20260505093059 | 71 | 180 | 10.0 | 18.0 | 0.00 | 0.00 | 0.00 | 81 | 1002.6 |
| 20260505093057 | 71 | 180 | 9.0 | 18.0 | 0.00 | 0.00 | 0.00 | 81 | 1001.5 |
| 20260505092958 | 71 | 186 | 9.0 | 18.0 | 0.00 | 0.00 | 0.00 | 81 | 1002.5 |
| 20260505092857 | 71 | 187 | 10.0 | 17.0 | 0.00 | 0.00 | 0.00 | 81 | 1002.7 |
| 20260505092756 | 71 | 205 | 9.0 | 17.0 | 0.00 | 0.00 | 0.00 | 81 | 1002.6 |
| 20260505092657 | 71 | 229 | 9.0 | 17.0 | 0.00 | 0.00 | 0.00 | 81 | 1002.7 |
| 20260505092557 | 71 | 196 | 8.0 | 17.0 | 0.00 | 0.00 | 0.00 | 81 | 1002.7 |
| 20260505092457 | 71 | 205 | 8.0 | 17.0 | 0.00 | 0.00 | 0.00 | 81 | 1002.8 |
| 20260505092257 | 71 | 197 | 6.0 | 17.0 | 0.00 | 0.00 | 0.00 | 81 | 1002.7 |
| 20260505092158 | 71 | 251 | 7.0 | 17.0 | 0.00 | 0.00 | 0.00 | 81 | 1002.6 |
| 20260505092058 | 71 | 200 | 7.0 | 17.0 | 0.00 | 0.00 | 0.00 | 81 | 1002.7 |
| 20260505091957 | 71 | 187 | 7.0 | 17.0 | 0.00 | 0.00 | 0.00 | 81 | 1002.6 |
| 20260505091858 | 71 | 207 | 6.0 | 15.0 | 0.00 | 0.00 | 0.00 | 81 | 1002.7 |
| 20260505091758 | 71 | 177 | 7.0 | 15.0 | 0.00 | 0.00 | 0.00 | 81 | 1002.6 |
| 20260505091657 | 71 | 192 | 7.0 | 15.0 | 0.00 | 0.00 | 0.00 | 81 | 1002.6 |
| 20260505091617 | 71 | 202 | 7.0 | 16.0 | 0.00 | 0.00 | 0.00 | 81 | 1001.6 |
| 20260505091458 | 71 | 162 | 8.0 | 16.0 | 0.00 | 0.00 | 0.00 | 81 | 1002.6 |
| 20260505091357 | 71 | 186 | 8.0 | 16.0 | 0.00 | 0.00 | 0.00 | 81 | 1002.7 |
| 20260505091257 | 71 | 206 | 6.0 | 16.0 | 0.00 | 0.00 | 0.00 | 81 | 1002.8 |
| 20260505091157 | 71 | 167 | 5.0 | 16.0 | 0.00 | 0.00 | 0.00 | 81 | 1002.7 |
| 20260505091058 | 71 | 207 | 6.0 | 16.0 | 0.00 | 0.00 | 0.00 | 81 | 1002.8 |
| 20260505090957 | 71 | 186 | 7.0 | 16.0 | 0.00 | 0.00 | 0.00 | 81 | 1002.7 |
| 20260505090458 | 71 | 147 | 8.0 | 14.0 | 0.00 | 0.00 | 0.00 | 81 | 1002.8 |
| 20260505090257 | 71 | 209 | 7.0 | 14.0 | 0.00 | 0.00 | 0.00 | 81 | 1002.8 |
| 20260505090158 | 71 | 223 | 7.0 | 12.0 | 0.00 | 0.00 | 0.00 | 81 | 1002.9 |
| 20260505090058 | 71 | 252 | 6.0 | 14.0 | 0.00 | 0.00 | 0.00 | 81 | 1002.8 |
| 20260505085956 | 71 | 199 | 6.0 | 17.0 | 0.00 | 0.00 | 0.00 | 81 | 1002.8 |
| 20260505085857 | 71 | 238 | 5.0 | 17.0 | 0.00 | 0.00 | 0.00 | 81 | 1002.8 |
| 20260505085656 | 71 | 180 | 5.0 | 17.0 | 0.00 | 0.00 | 0.00 | 80 | 1002.8 |
| 20260505085556 | 71 | 189 | 6.0 | 17.0 | 0.00 | 0.00 | 0.00 | 80 | 1002.8 |
| 20260505085456 | 71 | 192 | 7.0 | 17.0 | 0.00 | 0.00 | 0.00 | 80 | 1002.8 |
| 20260505085356 | 71 | 186 | 7.0 | 17.0 | 0.00 | 0.00 | 0.00 | 80 | 1002.8 |
| 20260505085256 | 71 | 190 | 8.0 | 17.0 | 0.00 | 0.00 | 0.00 | 80 | 1002.7 |
| 20260505085156 | 71 | 176 | 7.0 | 17.0 | 0.00 | 0.00 | 0.00 | 80 | 1002.8 |
| 20260505084956 | 71 | 179 | 7.0 | 18.0 | 0.00 | 0.00 | 0.00 | 80 | 1002.7 |
| 20260505084856 | 71 | 222 | 7.0 | 18.0 | 0.00 | 0.00 | 0.00 | 80 | 1002.6 |
| 20260505084757 | 71 | 181 | 7.0 | 18.0 | 0.00 | 0.00 | 0.00 | 80 | 1002.6 |
| 20260505084557 | 71 | 223 | 7.0 | 18.0 | 0.00 | 0.00 | 0.00 | 80 | 1001.6 |
| 20260505084456 | 71 | 171 | 6.0 | 18.0 | 0.00 | 0.00 | 0.00 | 80 | 1002.7 |
| 20260505084357 | 71 | 202 | 7.0 | 18.0 | 0.00 | 0.00 | 0.00 | 80 | 1002.6 |
| 20260505084156 | 71 | 193 | 8.0 | 18.0 | 0.00 | 0.00 | 0.00 | 80 | 1002.7 |
| 20260505083956 | 71 | 192 | 5.0 | 16.0 | 0.00 | 0.00 | 0.00 | 80 | 1002.8 |
| 20260505083857 | 71 | 196 | 5.0 | 16.0 | 0.00 | 0.00 | 0.00 | 80 | 1002.7 |
| 20260505083656 | 71 | 218 | 6.0 | 16.0 | 0.00 | 0.00 | 0.00 | 80 | 1002.8 |
| 20260505083556 | 71 | 190 | 7.0 | 16.0 | 0.00 | 0.00 | 0.00 | 80 | 1002.7 |
| 20260505083456 | 71 | 195 | 7.0 | 12.0 | 0.00 | 0.00 | 0.00 | 80 | 1002.7 |
| 20260505083356 | 71 | 186 | 6.0 | 12.0 | 0.00 | 0.00 | 0.00 | 80 | 1002.7 |
| 20260505083257 | 71 | 182 | 5.0 | 11.0 | 0.00 | 0.00 | 0.00 | 80 | 1002.8 |
| 20260505083157 | 71 | 196 | 5.0 | 11.0 | 0.00 | 0.00 | 0.00 | 80 | 1002.7 |
| 20260505083056 | 71 | 202 | 5.0 | 11.0 | 0.00 | 0.00 | 0.00 | 80 | 1001.6 |
| 20260505082958 | 71 | 200 | 5.0 | 11.0 | 0.00 | 0.00 | 0.00 | 80 | 1002.7 |
| 20260505082856 | 71 | 219 | 5.0 | 11.0 | 0.00 | 0.00 | 0.00 | 80 | 1002.7 |
| 20260505082756 | 71 | 161 | 6.0 | 11.0 | 0.00 | 0.00 | 0.00 | 80 | 1002.7 |
| 20260505082657 | 71 | 198 | 6.0 | 11.0 | 0.00 | 0.00 | 0.00 | 80 | 1002.7 |
| 20260505082558 | 71 | 197 | 6.0 | 11.0 | 0.00 | 0.00 | 0.00 | 80 | 1002.8 |
| 20260505082456 | 71 | 190 | 5.0 | 11.0 | 0.00 | 0.00 | 0.00 | 80 | 1002.8 |
| 20260505082357 | 71 | 205 | 5.0 | 14.0 | 0.00 | 0.00 | 0.00 | 80 | 1002.8 |
| 20260505082256 | 71 | 179 | 4.0 | 14.0 | 0.00 | 0.00 | 0.00 | 80 | 1002.8 |
| 20260505082057 | 71 | 202 | 5.0 | 14.0 | 0.00 | 0.00 | 0.00 | 79 | 1002.8 |
| 20260505081955 | 71 | 194 | 5.0 | 14.0 | 0.00 | 0.00 | 0.00 | 79 | 1002.8 |
| 20260505081857 | 71 | 207 | 6.0 | 14.0 | 0.00 | 0.00 | 0.00 | 79 | 1002.8 |
| 20260505081758 | 71 | 242 | 8.0 | 14.0 | 0.00 | 0.00 | 0.00 | 79 | 1002.8 |
| 20260505081656 | 71 | 194 | 8.0 | 14.0 | 0.00 | 0.00 | 0.00 | 79 | 1002.9 |
| 20260505081556 | 71 | 194 | 8.0 | 14.0 | 0.00 | 0.00 | 0.00 | 79 | 1002.9 |
| 20260505081457 | 71 | 150 | 7.0 | 14.0 | 0.00 | 0.00 | 0.00 | 79 | 1002.8 |
| 20260505081357 | 71 | 212 | 6.0 | 14.0 | 0.00 | 0.00 | 0.00 | 79 | 1002.9 |
| 20260505081156 | 71 | 192 | 4.0 | 11.0 | 0.00 | 0.00 | 0.00 | 79 | 1002.9 |
| 20260505081057 | 71 | 187 | 6.0 | 14.0 | 0.00 | 0.00 | 0.00 | 79 | 1002.9 |
| 20260505080956 | 71 | 197 | 6.0 | 14.0 | 0.00 | 0.00 | 0.00 | 79 | 1003.0 |
| 20260505080757 | 71 | 169 | 6.0 | 14.0 | 0.00 | 0.00 | 0.00 | 79 | 1003.0 |
| 20260505080657 | 71 | 185 | 6.0 | 14.0 | 0.00 | 0.00 | 0.00 | 79 | 1003.0 |
| 20260505080556 | 71 | 194 | 6.0 | 14.0 | 0.00 | 0.00 | 0.00 | 79 | 1003.1 |
| 20260505080356 | 71 | 199 | 6.0 | 14.0 | 0.00 | 0.00 | 0.00 | 79 | 1003.0 |
| 20260505080257 | 71 | 186 | 6.0 | 14.0 | 0.00 | 0.00 | 0.00 | 79 | 1003.0 |
| 20260505080158 | 71 | 192 | 7.0 | 11.0 | 0.00 | 0.00 | 0.00 | 79 | 1003.1 |
| 20260505080056 | 71 | 208 | 7.0 | 12.0 | 0.00 | 0.00 | 0.00 | 79 | 1002.0 |
| 20260505075957 | 71 | 197 | 6.0 | 12.0 | 0.00 | 0.00 | 0.00 | 78 | 1003.0 |
| 20260505075856 | 71 | 163 | 6.0 | 12.0 | 0.00 | 0.00 | 0.00 | 78 | 1003.1 |
| 20260505075757 | 71 | 192 | 6.0 | 12.0 | 0.00 | 0.00 | 0.00 | 78 | 1003.1 |
| 20260505075656 | 71 | 165 | 6.0 | 12.0 | 0.00 | 0.00 | 0.00 | 78 | 1003.1 |
| 20260505075556 | 71 | 181 | 5.0 | 12.0 | 0.00 | 0.00 | 0.00 | 78 | 1003.1 |
| 20260505075456 | 71 | 187 | 6.0 | 12.0 | 0.00 | 0.00 | 0.00 | 78 | 1003.1 |
| 20260505075359 | 71 | 235 | 6.0 | 12.0 | 0.00 | 0.00 | 0.00 | 78 | 1003.1 |
| 20260505075256 | 71 | 190 | 5.0 | 12.0 | 0.00 | 0.00 | 0.00 | 78 | 1003.1 |
| 20260505075158 | 71 | 194 | 5.0 | 12.0 | 0.00 | 0.00 | 0.00 | 78 | 1003.1 |
| 20260505075057 | 71 | 210 | 5.0 | 12.0 | 0.00 | 0.00 | 0.00 | 78 | 1003.1 |
| 20260505074956 | 71 | 187 | 6.0 | 12.0 | 0.00 | 0.00 | 0.00 | 78 | 1003.2 |
| 20260505074857 | 71 | 184 | 7.0 | 12.0 | 0.00 | 0.00 | 0.00 | 78 | 1003.1 |
| 20260505074757 | 71 | 184 | 7.0 | 12.0 | 0.00 | 0.00 | 0.00 | 78 | 1003.2 |
| 20260505074658 | 71 | 190 | 6.0 | 14.0 | 0.00 | 0.00 | 0.00 | 78 | 1003.2 |
| 20260505074556 | 71 | 223 | 5.0 | 14.0 | 0.00 | 0.00 | 0.00 | 78 | 1002.2 |
| 20260505074456 | 71 | 189 | 5.0 | 14.0 | 0.00 | 0.00 | 0.00 | 78 | 1003.3 |
| 20260505074256 | 71 | 205 | 5.0 | 14.0 | 0.00 | 0.00 | 0.00 | 78 | 1003.4 |
| 20260505074056 | 71 | 190 | 6.0 | 14.0 | 0.00 | 0.00 | 0.00 | 78 | 1003.4 |
| 20260505073956 | 71 | 196 | 6.0 | 14.0 | 0.00 | 0.00 | 0.00 | 78 | 1003.4 |
| 20260505073856 | 71 | 192 | 6.0 | 11.0 | 0.00 | 0.00 | 0.00 | 78 | 1003.4 |
| 20260505073757 | 71 | 186 | 6.0 | 11.0 | 0.00 | 0.00 | 0.00 | 78 | 1003.3 |
| 20260505073656 | 71 | 200 | 6.0 | 11.0 | 0.00 | 0.00 | 0.00 | 78 | 1003.4 |
| 20260505073456 | 71 | 172 | 6.0 | 11.0 | 0.00 | 0.00 | 0.00 | 78 | 1003.4 |
| 20260505073356 | 71 | 193 | 5.0 | 10.0 | 0.00 | 0.00 | 0.00 | 78 | 1003.5 |
| 20260505073158 | 71 | 186 | 5.0 | 10.0 | 0.00 | 0.00 | 0.00 | 78 | 1003.4 |
| 20260505073101 | 71 | 184 | 4.0 | 10.0 | 0.00 | 0.00 | 0.00 | 77 | 1002.4 |
| 20260505073056 | 71 | 184 | 5.0 | 10.0 | 0.00 | 0.00 | 0.00 | 77 | 1003.4 |
| 20260505072957 | 71 | 198 | 5.0 | 9.0 | 0.00 | 0.00 | 0.00 | 77 | 1003.5 |
| 20260505072855 | 71 | 172 | 5.0 | 11.0 | 0.00 | 0.00 | 0.00 | 77 | 1003.6 |
| 20260505072656 | 71 | 182 | 5.0 | 11.0 | 0.00 | 0.00 | 0.00 | 77 | 1003.5 |
| 20260505072557 | 71 | 173 | 5.0 | 11.0 | 0.00 | 0.00 | 0.00 | 77 | 1003.5 |
| 20260505072457 | 71 | 199 | 4.0 | 11.0 | 0.00 | 0.00 | 0.00 | 77 | 1003.6 |
| 20260505072356 | 71 | 178 | 4.0 | 11.0 | 0.00 | 0.00 | 0.00 | 77 | 1003.6 |
| 20260505072258 | 71 | 204 | 5.0 | 11.0 | 0.00 | 0.00 | 0.00 | 77 | 1003.6 |
| 20260505072156 | 71 | 204 | 5.0 | 11.0 | 0.00 | 0.00 | 0.00 | 77 | 1003.6 |
| 20260505072057 | 71 | 209 | 5.0 | 15.0 | 0.00 | 0.00 | 0.00 | 77 | 1003.7 |
| 20260505071957 | 71 | 179 | 6.0 | 15.0 | 0.00 | 0.00 | 0.00 | 77 | 1003.7 |
| 20260505071856 | 71 | 169 | 6.0 | 15.0 | 0.00 | 0.00 | 0.00 | 77 | 1003.7 |
| 20260505071757 | 71 | 212 | 7.0 | 15.0 | 0.00 | 0.00 | 0.00 | 77 | 1003.8 |
| 20260505071657 | 71 | 197 | 6.0 | 15.0 | 0.00 | 0.00 | 0.00 | 77 | 1003.7 |
| 20260505071557 | 71 | 188 | 6.0 | 15.0 | 0.00 | 0.00 | 0.00 | 77 | 1003.7 |
| 20260505071357 | 71 | 216 | 6.0 | 11.0 | 0.00 | 0.00 | 0.00 | 77 | 1003.8 |
| 20260505071256 | 71 | 202 | 6.0 | 11.0 | 0.00 | 0.00 | 0.00 | 77 | 1003.8 |
| 20260505071057 | 71 | 215 | 6.0 | 11.0 | 0.00 | 0.00 | 0.00 | 77 | 1003.7 |
| 20260505070956 | 71 | 192 | 6.0 | 14.0 | 0.00 | 0.00 | 0.00 | 77 | 1003.8 |
| 20260505070857 | 71 | 164 | 6.0 | 14.0 | 0.00 | 0.00 | 0.00 | 77 | 1003.8 |
| 20260505070757 | 71 | 184 | 7.0 | 14.0 | 0.00 | 0.00 | 0.00 | 77 | 1003.8 |
| 20260505070656 | 71 | 182 | 6.0 | 14.0 | 0.00 | 0.00 | 0.00 | 77 | 1003.8 |
| 20260505070556 | 71 | 182 | 5.0 | 14.0 | 0.00 | 0.00 | 0.00 | 77 | 1003.8 |
| 20260505070456 | 71 | 198 | 6.0 | 14.0 | 0.00 | 0.00 | 0.00 | 77 | 1003.8 |
| 20260505070357 | 71 | 176 | 5.0 | 14.0 | 0.00 | 0.00 | 0.00 | 77 | 1003.8 |
| 20260505070256 | 71 | 199 | 6.0 | 14.0 | 0.00 | 0.00 | 0.00 | 77 | 1003.8 |
| 20260505070156 | 71 | 187 | 5.0 | 14.0 | 0.00 | 0.00 | 0.00 | 77 | 1003.8 |
| 20260505070058 | 71 | 194 | 5.0 | 14.0 | 0.00 | 0.00 | 0.00 | 77 | 1002.8 |
| 20260505070056 | 71 | 194 | 5.0 | 14.0 | 0.00 | 0.00 | 0.00 | 77 | 1003.9 |
| 20260505065957 | 71 | 172 | 6.0 | 14.0 | 0.00 | 0.00 | 0.00 | 77 | 1003.8 |
| 20260505065856 | 71 | 188 | 7.0 | 14.0 | 0.00 | 0.00 | 0.00 | 77 | 1003.9 |
| 20260505065757 | 71 | 177 | 7.0 | 14.0 | 0.00 | 0.00 | 0.00 | 77 | 1003.8 |
| 20260505065656 | 71 | 186 | 8.0 | 14.0 | 0.00 | 0.00 | 0.00 | 77 | 1003.9 |
| 20260505065555 | 71 | 175 | 8.0 | 14.0 | 0.00 | 0.00 | 0.00 | 77 | 1003.8 |
| 20260505065457 | 71 | 186 | 6.0 | 14.0 | 0.00 | 0.00 | 0.00 | 77 | 1003.8 |
| 20260505065356 | 71 | 192 | 5.0 | 14.0 | 0.00 | 0.00 | 0.00 | 77 | 1003.8 |
| 20260505065258 | 71 | 180 | 5.0 | 14.0 | 0.00 | 0.00 | 0.00 | 77 | 1003.9 |
| 20260505065057 | 71 | 202 | 6.0 | 13.0 | 0.00 | 0.00 | 0.00 | 77 | 1003.9 |
| 20260505064956 | 71 | 198 | 6.0 | 13.0 | 0.00 | 0.00 | 0.00 | 76 | 1003.9 |
| 20260505064857 | 71 | 168 | 7.0 | 13.0 | 0.00 | 0.00 | 0.00 | 76 | 1003.9 |
| 20260505064756 | 71 | 150 | 7.0 | 13.0 | 0.00 | 0.00 | 0.00 | 76 | 1004.0 |
| 20260505064656 | 71 | 162 | 7.0 | 13.0 | 0.00 | 0.00 | 0.00 | 76 | 1004.0 |
| 20260505064607 | 71 | 196 | 7.0 | 13.0 | 0.00 | 0.00 | 0.00 | 76 | 1003.1 |
| 20260505064455 | 71 | 194 | 8.0 | 13.0 | 0.00 | 0.00 | 0.00 | 76 | 1004.0 |
| 20260505064357 | 71 | 181 | 8.0 | 13.0 | 0.00 | 0.00 | 0.00 | 76 | 1004.0 |
| 20260505064156 | 71 | 189 | 7.0 | 13.0 | 0.00 | 0.00 | 0.00 | 76 | 1004.0 |
| 20260505064057 | 71 | 167 | 6.0 | 13.0 | 0.00 | 0.00 | 0.00 | 76 | 1004.1 |
| 20260505063957 | 71 | 219 | 8.0 | 14.0 | 0.00 | 0.00 | 0.00 | 76 | 1004.0 |
| 20260505063856 | 71 | 173 | 9.0 | 14.0 | 0.00 | 0.00 | 0.00 | 76 | 1004.2 |
| 20260505063756 | 71 | 182 | 8.0 | 13.0 | 0.00 | 0.00 | 0.00 | 76 | 1004.2 |
| 20260505063657 | 71 | 196 | 8.0 | 13.0 | 0.00 | 0.00 | 0.00 | 76 | 1004.1 |
| 20260505063556 | 71 | 176 | 8.0 | 13.0 | 0.00 | 0.00 | 0.00 | 76 | 1004.2 |
| 20260505063457 | 71 | 213 | 8.0 | 13.0 | 0.00 | 0.00 | 0.00 | 76 | 1004.2 |
| 20260505063356 | 71 | 192 | 8.0 | 12.0 | 0.00 | 0.00 | 0.00 | 76 | 1004.2 |
| 20260505063157 | 71 | 180 | 7.0 | 17.0 | 0.00 | 0.00 | 0.00 | 76 | 1004.2 |
| 20260505063056 | 71 | 195 | 6.0 | 17.0 | 0.00 | 0.00 | 0.00 | 75 | 1003.2 |
| 20260505062957 | 72 | 175 | 8.0 | 17.0 | 0.00 | 0.00 | 0.00 | 75 | 1004.1 |
| 20260505062758 | 72 | 202 | 8.0 | 17.0 | 0.00 | 0.00 | 0.00 | 75 | 1004.1 |
| 20260505062657 | 72 | 172 | 8.0 | 17.0 | 0.00 | 0.00 | 0.00 | 75 | 1004.1 |
| 20260505062556 | 72 | 192 | 9.0 | 17.0 | 0.00 | 0.00 | 0.00 | 75 | 1004.2 |
| 20260505062457 | 72 | 176 | 8.0 | 17.0 | 0.00 | 0.00 | 0.00 | 75 | 1004.1 |
| 20260505062356 | 72 | 163 | 8.0 | 16.0 | 0.00 | 0.00 | 0.00 | 75 | 1004.2 |
| 20260505062256 | 72 | 192 | 8.0 | 16.0 | 0.00 | 0.00 | 0.00 | 75 | 1004.2 |
| 20260505062156 | 72 | 191 | 9.0 | 16.0 | 0.00 | 0.00 | 0.00 | 75 | 1004.1 |
| 20260505062056 | 72 | 194 | 8.0 | 16.0 | 0.00 | 0.00 | 0.00 | 75 | 1004.2 |
| 20260505061956 | 72 | 172 | 7.0 | 16.0 | 0.00 | 0.00 | 0.00 | 75 | 1004.1 |
| 20260505061857 | 72 | 229 | 7.0 | 16.0 | 0.00 | 0.00 | 0.00 | 75 | 1004.3 |
| 20260505061757 | 72 | 173 | 8.0 | 16.0 | 0.00 | 0.00 | 0.00 | 75 | 1004.1 |
| 20260505061556 | 72 | 194 | 10.0 | 17.0 | 0.00 | 0.00 | 0.00 | 75 | 1004.2 |
| 20260505061457 | 72 | 174 | 8.0 | 17.0 | 0.00 | 0.00 | 0.00 | 75 | 1004.2 |
| 20260505061356 | 72 | 175 | 7.0 | 17.0 | 0.00 | 0.00 | 0.00 | 75 | 1004.2 |
| 20260505061256 | 72 | 175 | 6.0 | 17.0 | 0.00 | 0.00 | 0.00 | 74 | 1004.2 |
| 20260505061156 | 72 | 191 | 6.0 | 17.0 | 0.00 | 0.00 | 0.00 | 74 | 1004.2 |
| 20260505060858 | 72 | 192 | 9.0 | 17.0 | 0.00 | 0.00 | 0.00 | 74 | 1004.2 |
| 20260505060756 | 72 | 175 | 9.0 | 17.0 | 0.00 | 0.00 | 0.00 | 74 | 1004.1 |
| 20260505060656 | 72 | 178 | 8.0 | 18.0 | 0.00 | 0.00 | 0.00 | 74 | 1004.2 |
| 20260505060556 | 72 | 165 | 7.0 | 18.0 | 0.00 | 0.00 | 0.00 | 74 | 1004.2 |
| 20260505060456 | 72 | 193 | 6.0 | 18.0 | 0.00 | 0.00 | 0.00 | 74 | 1004.2 |
| 20260505060357 | 72 | 191 | 7.0 | 18.0 | 0.00 | 0.00 | 0.00 | 74 | 1004.1 |
| 20260505060257 | 72 | 180 | 9.0 | 18.0 | 0.00 | 0.00 | 0.00 | 74 | 1004.2 |
| 20260505060156 | 72 | 174 | 9.0 | 18.0 | 0.00 | 0.00 | 0.00 | 74 | 1004.2 |
| 20260505060056 | 72 | 180 | 9.0 | 18.0 | 0.00 | 0.00 | 0.00 | 74 | 1004.2 |
| 20260505060001 | 72 | 214 | 8.0 | 18.0 | 0.00 | 0.00 | 0.00 | 74 | 1003.2 |
| 20260505055902 | 72 | 198 | 9.0 | 17.0 | 0.00 | 0.00 | 0.00 | 74 | 1004.1 |
| 20260505055801 | 72 | 168 | 8.0 | 15.0 | 0.00 | 0.00 | 0.00 | 74 | 1004.1 |
| 20260505055701 | 72 | 178 | 8.0 | 15.0 | 0.00 | 0.00 | 0.00 | 74 | 1004.2 |
| 20260505055601 | 72 | 194 | 7.0 | 15.0 | 0.00 | 0.00 | 0.00 | 74 | 1004.1 |
| 20260505055502 | 72 | 193 | 8.0 | 15.0 | 0.00 | 0.00 | 0.00 | 74 | 1004.3 |
| 20260505055401 | 72 | 186 | 8.0 | 14.0 | 0.00 | 0.00 | 0.00 | 74 | 1004.2 |
| 20260505055300 | 72 | 171 | 9.0 | 14.0 | 0.00 | 0.00 | 0.00 | 74 | 1004.3 |
| 20260505055202 | 72 | 185 | 8.0 | 14.0 | 0.00 | 0.00 | 0.00 | 74 | 1004.2 |
| 20260505055102 | 72 | 188 | 8.0 | 14.0 | 0.00 | 0.00 | 0.00 | 74 | 1004.1 |
| 20260505055002 | 72 | 192 | 8.0 | 14.0 | 0.00 | 0.00 | 0.00 | 74 | 1004.2 |
| 20260505054902 | 72 | 182 | 8.0 | 14.0 | 0.00 | 0.00 | 0.00 | 74 | 1004.0 |
| 20260505054802 | 72 | 192 | 9.0 | 14.0 | 0.00 | 0.00 | 0.00 | 74 | 1004.1 |
| 20260505054621 | 72 | 161 | 7.0 | 13.0 | 0.00 | 0.00 | 0.00 | 74 | 1003.1 |
| 20260505054604 | 72 | 161 | 8.0 | 13.0 | 0.00 | 0.00 | 0.00 | 74 | 1004.1 |
| 20260505054502 | 72 | 212 | 7.0 | 13.0 | 0.00 | 0.00 | 0.00 | 74 | 1004.1 |
| 20260505054500 | 72 | 212 | 7.0 | 13.0 | 0.00 | 0.00 | 0.00 | 74 | 1003.1 |
| 20260505054401 | 72 | 175 | 7.0 | 13.0 | 0.00 | 0.00 | 0.00 | 74 | 1004.2 |
| 20260505054301 | 72 | 187 | 7.0 | 13.0 | 0.00 | 0.00 | 0.00 | 74 | 1004.2 |
| 20260505054202 | 72 | 183 | 8.0 | 13.0 | 0.00 | 0.00 | 0.00 | 74 | 1004.1 |
| 20260505053802 | 72 | 175 | 7.0 | 14.0 | 0.00 | 0.00 | 0.00 | 73 | 1004.1 |
| 20260505053701 | 72 | 184 | 7.0 | 14.0 | 0.00 | 0.00 | 0.00 | 73 | 1004.2 |
| 20260505053601 | 72 | 183 | 8.0 | 14.0 | 0.00 | 0.00 | 0.00 | 73 | 1004.2 |
| 20260505053502 | 72 | 161 | 8.0 | 16.0 | 0.00 | 0.00 | 0.00 | 73 | 1004.1 |
| 20260505053402 | 72 | 188 | 8.0 | 16.0 | 0.00 | 0.00 | 0.00 | 73 | 1004.2 |
| 20260505053302 | 72 | 175 | 8.0 | 16.0 | 0.00 | 0.00 | 0.00 | 73 | 1004.2 |
| 20260505053202 | 72 | 202 | 9.0 | 16.0 | 0.00 | 0.00 | 0.00 | 73 | 1004.3 |
| 20260505053102 | 73 | 180 | 9.0 | 16.0 | 0.00 | 0.00 | 0.00 | 73 | 1004.2 |
| 20260505053001 | 73 | 178 | 8.0 | 17.0 | 0.00 | 0.00 | 0.00 | 73 | 1004.2 |
| 20260505052901 | 73 | 171 | 9.0 | 17.0 | 0.00 | 0.00 | 0.00 | 73 | 1004.3 |
| 20260505052701 | 73 | 184 | 9.0 | 17.0 | 0.00 | 0.00 | 0.00 | 73 | 1004.3 |
| 20260505052501 | 73 | 200 | 10.0 | 17.0 | 0.00 | 0.00 | 0.00 | 73 | 1004.4 |
| 20260505052402 | 73 | 160 | 10.0 | 17.0 | 0.00 | 0.00 | 0.00 | 73 | 1004.2 |
| 20260505052304 | 73 | 175 | 9.0 | 19.0 | 0.00 | 0.00 | 0.00 | 72 | 1004.3 |
| 20260505052202 | 73 | 178 | 9.0 | 19.0 | 0.00 | 0.00 | 0.00 | 72 | 1004.3 |
| 20260505052102 | 73 | 208 | 8.0 | 19.0 | 0.00 | 0.00 | 0.00 | 72 | 1004.3 |
| 20260505052001 | 73 | 186 | 9.0 | 19.0 | 0.00 | 0.00 | 0.00 | 72 | 1004.3 |
| 20260505051902 | 73 | 190 | 10.0 | 19.0 | 0.00 | 0.00 | 0.00 | 72 | 1004.3 |
| 20260505051801 | 73 | 182 | 10.0 | 19.0 | 0.00 | 0.00 | 0.00 | 72 | 1004.5 |
| 20260505051701 | 73 | 202 | 11.0 | 19.0 | 0.00 | 0.00 | 0.00 | 72 | 1004.5 |
| 20260505051601 | 73 | 188 | 10.0 | 19.0 | 0.00 | 0.00 | 0.00 | 72 | 1003.4 |
| 20260505051501 | 73 | 154 | 11.0 | 19.0 | 0.00 | 0.00 | 0.00 | 72 | 1004.5 |
| 20260505051403 | 73 | 191 | 10.0 | 19.0 | 0.00 | 0.00 | 0.00 | 72 | 1004.4 |
| 20260505051302 | 73 | 210 | 10.0 | 16.0 | 0.00 | 0.00 | 0.00 | 72 | 1004.5 |
| 20260505051101 | 73 | 182 | 9.0 | 18.0 | 0.00 | 0.00 | 0.00 | 72 | 1004.5 |
| 20260505050901 | 73 | 191 | 10.0 | 18.0 | 0.00 | 0.00 | 0.00 | 72 | 1004.5 |
| 20260505050802 | 73 | 182 | 11.0 | 18.0 | 0.00 | 0.00 | 0.00 | 72 | 1004.5 |
| 20260505050701 | 73 | 214 | 10.0 | 18.0 | 0.00 | 0.00 | 0.00 | 72 | 1004.6 |
| 20260505050602 | 73 | 192 | 9.0 | 18.0 | 0.00 | 0.00 | 0.00 | 72 | 1004.5 |
| 20260505050502 | 73 | 169 | 9.0 | 20.0 | 0.00 | 0.00 | 0.00 | 72 | 1004.8 |
| 20260505050401 | 73 | 169 | 11.0 | 20.0 | 0.00 | 0.00 | 0.00 | 72 | 1004.6 |
| 20260505050302 | 73 | 178 | 12.0 | 20.0 | 0.00 | 0.00 | 0.00 | 72 | 1004.7 |
| 20260505050203 | 73 | 178 | 11.0 | 20.0 | 0.00 | 0.00 | 0.00 | 72 | 1004.6 |
| 20260505041702 | 73 | 194 | 8.0 | 14.0 | 0.00 | 0.00 | 0.00 | 72 | 1005.0 |
| 20260505041601 | 73 | 176 | 8.0 | 14.0 | 0.00 | 0.00 | 0.00 | 72 | 1004.8 |
| 20260505041504 | 73 | 188 | 7.0 | 14.0 | 0.00 | 0.00 | 0.00 | 72 | 1003.8 |
| 20260505041501 | 73 | 188 | 8.0 | 14.0 | 0.00 | 0.00 | 0.00 | 72 | 1004.7 |
| 20260505041302 | 73 | 194 | 7.0 | 14.0 | 0.00 | 0.00 | 0.00 | 72 | 1004.8 |
| 20260505041201 | 73 | 199 | 8.0 | 14.0 | 0.00 | 0.00 | 0.00 | 72 | 1004.8 |
| 20260505041101 | 73 | 169 | 9.0 | 14.0 | 0.00 | 0.00 | 0.00 | 72 | 1004.7 |
| 20260505041002 | 73 | 196 | 10.0 | 14.0 | 0.00 | 0.00 | 0.00 | 72 | 1004.8 |
| 20260505040901 | 73 | 204 | 9.0 | 14.0 | 0.00 | 0.00 | 0.00 | 72 | 1004.8 |
| 20260505040801 | 72 | 221 | 9.0 | 14.0 | 0.00 | 0.00 | 0.00 | 72 | 1004.9 |
| 20260505040702 | 72 | 173 | 9.0 | 14.0 | 0.00 | 0.00 | 0.00 | 72 | 1004.7 |
| 20260505040600 | 72 | 190 | 9.0 | 14.0 | 0.00 | 0.00 | 0.00 | 72 | 1005.0 |
| 20260505040501 | 72 | 175 | 9.0 | 16.0 | 0.00 | 0.00 | 0.00 | 72 | 1004.9 |
| 20260505040402 | 72 | 175 | 8.0 | 16.0 | 0.00 | 0.00 | 0.00 | 72 | 1004.9 |
| 20260505040310 | 72 | 192 | 8.0 | 16.0 | 0.00 | 0.00 | 0.00 | 72 | 1004.9 |
| 20260505040201 | 72 | 164 | 7.0 | 16.0 | 0.00 | 0.00 | 0.00 | 72 | 1005.0 |
| 20260505040001 | 72 | 171 | 7.0 | 16.0 | 0.00 | 0.00 | 0.00 | 72 | 1003.9 |
| 20260505035902 | 72 | 175 | 8.0 | 16.0 | 0.00 | 0.00 | 0.00 | 72 | 1004.9 |
| 20260505035801 | 72 | 190 | 8.0 | 16.0 | 0.00 | 0.00 | 0.00 | 72 | 1004.9 |
| 20260505035701 | 72 | 178 | 8.0 | 16.0 | 0.00 | 0.00 | 0.00 | 72 | 1004.9 |
| 20260505035602 | 72 | 157 | 8.0 | 15.0 | 0.00 | 0.00 | 0.00 | 72 | 1004.8 |
| 20260505035501 | 72 | 181 | 8.0 | 18.0 | 0.00 | 0.00 | 0.00 | 72 | 1004.7 |
| 20260505035402 | 72 | 183 | 9.0 | 18.0 | 0.00 | 0.00 | 0.00 | 72 | 1004.7 |
| 20260505035301 | 72 | 171 | 8.0 | 18.0 | 0.00 | 0.00 | 0.00 | 72 | 1004.7 |
| 20260505035202 | 72 | 175 | 7.0 | 18.0 | 0.00 | 0.00 | 0.00 | 72 | 1004.7 |
| 20260505035101 | 72 | 159 | 7.0 | 18.0 | 0.00 | 0.00 | 0.00 | 72 | 1004.8 |
| 20260505035002 | 72 | 137 | 7.0 | 18.0 | 0.00 | 0.00 | 0.00 | 72 | 1004.7 |
| 20260505034901 | 73 | 161 | 8.0 | 18.0 | 0.00 | 0.00 | 0.00 | 72 | 1004.7 |
| 20260505034801 | 73 | 162 | 8.0 | 18.0 | 0.00 | 0.00 | 0.00 | 72 | 1004.8 |
| 20260505034702 | 73 | 160 | 9.0 | 18.0 | 0.00 | 0.00 | 0.00 | 72 | 1004.7 |
| 20260505034601 | 73 | 166 | 10.0 | 18.0 | 0.00 | 0.00 | 0.00 | 72 | 1004.7 |
| 20260505034501 | 73 | 189 | 8.0 | 18.0 | 0.00 | 0.00 | 0.00 | 72 | 1003.9 |
| 20260505034401 | 72 | 172 | 8.0 | 15.0 | 0.00 | 0.00 | 0.00 | 72 | 1004.9 |
| 20260505034302 | 72 | 169 | 8.0 | 15.0 | 0.00 | 0.00 | 0.00 | 72 | 1004.9 |
| 20260505034202 | 72 | 192 | 10.0 | 15.0 | 0.00 | 0.00 | 0.00 | 72 | 1004.7 |
| 20260505034102 | 72 | 185 | 9.0 | 15.0 | 0.00 | 0.00 | 0.00 | 72 | 1004.7 |
| 20260505034002 | 72 | 183 | 8.0 | 17.0 | 0.00 | 0.00 | 0.00 | 72 | 1004.9 |
| 20260505033901 | 72 | 158 | 7.0 | 12.0 | 0.00 | 0.00 | 0.00 | 72 | 1004.8 |
| 20260505033801 | 72 | 207 | 8.0 | 11.0 | 0.00 | 0.00 | 0.00 | 72 | 1004.9 |
| 20260505033702 | 72 | 155 | 8.0 | 14.0 | 0.00 | 0.00 | 0.00 | 72 | 1004.8 |
| 20260505033601 | 72 | 186 | 8.0 | 17.0 | 0.00 | 0.00 | 0.00 | 72 | 1004.9 |
| 20260505033501 | 73 | 174 | 8.0 | 17.0 | 0.00 | 0.00 | 0.00 | 71 | 1004.8 |
| 20260505033402 | 73 | 146 | 8.0 | 17.0 | 0.00 | 0.00 | 0.00 | 71 | 1004.8 |
| 20260505033202 | 73 | 169 | 8.0 | 17.0 | 0.00 | 0.00 | 0.00 | 71 | 1004.8 |
| 20260505033101 | 73 | 182 | 9.0 | 17.0 | 0.00 | 0.00 | 0.00 | 71 | 1004.9 |
| 20260505033002 | 73 | 171 | 10.0 | 17.0 | 0.00 | 0.00 | 0.00 | 71 | 1004.9 |
| 20260505032902 | 73 | 181 | 9.0 | 17.0 | 0.00 | 0.00 | 0.00 | 71 | 1004.9 |
| 20260505032801 | 73 | 159 | 9.0 | 17.0 | 0.00 | 0.00 | 0.00 | 71 | 1005.1 |
| 20260505032601 | 73 | 187 | 8.0 | 13.0 | 0.00 | 0.00 | 0.00 | 71 | 1005.0 |
| 20260505032401 | 73 | 194 | 7.0 | 14.0 | 0.00 | 0.00 | 0.00 | 71 | 1005.0 |
| 20260505032301 | 73 | 171 | 8.0 | 14.0 | 0.00 | 0.00 | 0.00 | 71 | 1005.0 |
| 20260505032201 | 73 | 192 | 8.0 | 14.0 | 0.00 | 0.00 | 0.00 | 71 | 1005.1 |
| 20260505032101 | 73 | 194 | 7.0 | 14.0 | 0.00 | 0.00 | 0.00 | 71 | 1005.0 |
| 20260505032002 | 73 | 189 | 7.0 | 14.0 | 0.00 | 0.00 | 0.00 | 71 | 1005.0 |
| 20260505031901 | 73 | 154 | 7.0 | 14.0 | 0.00 | 0.00 | 0.00 | 71 | 1005.1 |
| 20260505031801 | 73 | 180 | 7.0 | 15.0 | 0.00 | 0.00 | 0.00 | 71 | 1005.1 |
| 20260505031701 | 73 | 182 | 8.0 | 15.0 | 0.00 | 0.00 | 0.00 | 71 | 1005.0 |
| 20260505031602 | 73 | 167 | 8.0 | 15.0 | 0.00 | 0.00 | 0.00 | 71 | 1005.0 |
| 20260505031506 | 73 | 165 | 8.0 | 15.0 | 0.00 | 0.00 | 0.00 | 71 | 1004.1 |
| 20260505031502 | 73 | 165 | 9.0 | 15.0 | 0.00 | 0.00 | 0.00 | 71 | 1005.0 |
| 20260505031401 | 73 | 192 | 8.0 | 15.0 | 0.00 | 0.00 | 0.00 | 71 | 1005.1 |
| 20260505031302 | 73 | 223 | 8.0 | 15.0 | 0.00 | 0.00 | 0.00 | 71 | 1005.0 |
| 20260505031201 | 73 | 173 | 9.0 | 15.0 | 0.00 | 0.00 | 0.00 | 71 | 1005.2 |
| 20260505031002 | 73 | 182 | 9.0 | 17.0 | 0.00 | 0.00 | 0.00 | 71 | 1005.1 |
| 20260505030902 | 73 | 179 | 9.0 | 17.0 | 0.00 | 0.00 | 0.00 | 71 | 1005.0 |
| 20260505030801 | 73 | 178 | 9.0 | 17.0 | 0.00 | 0.00 | 0.00 | 70 | 1005.0 |
| 20260505030701 | 73 | 173 | 9.0 | 17.0 | 0.00 | 0.00 | 0.00 | 70 | 1005.0 |
| 20260505030601 | 73 | 160 | 8.0 | 17.0 | 0.00 | 0.00 | 0.00 | 70 | 1004.9 |
| 20260505030501 | 73 | 186 | 8.0 | 17.0 | 0.00 | 0.00 | 0.00 | 70 | 1004.9 |
| 20260505030401 | 73 | 157 | 9.0 | 17.0 | 0.00 | 0.00 | 0.00 | 71 | 1005.0 |
| 20260505030302 | 73 | 182 | 9.0 | 17.0 | 0.00 | 0.00 | 0.00 | 71 | 1005.0 |
| 20260505030201 | 73 | 192 | 8.0 | 14.0 | 0.00 | 0.00 | 0.00 | 71 | 1004.9 |
| 20260505030003 | 73 | 188 | 8.0 | 14.0 | 0.00 | 0.00 | 0.00 | 70 | 1004.9 |
| 20260505025902 | 73 | 177 | 7.0 | 13.0 | 0.00 | 0.00 | 0.00 | 70 | 1004.9 |
| 20260505025801 | 73 | 178 | 7.0 | 12.0 | 0.00 | 0.00 | 0.00 | 70 | 1004.9 |
| 20260505025701 | 73 | 163 | 7.0 | 12.0 | 0.00 | 0.00 | 0.00 | 70 | 1004.9 |
| 20260505025602 | 73 | 185 | 8.0 | 12.0 | 0.00 | 0.00 | 0.00 | 70 | 1004.9 |
| 20260505025501 | 73 | 185 | 9.0 | 13.0 | 0.00 | 0.00 | 0.00 | 70 | 1005.0 |
| 20260505025304 | 73 | 202 | 8.0 | 13.0 | 0.00 | 0.00 | 0.00 | 70 | 1005.0 |
| 20260505025201 | 73 | 159 | 7.0 | 13.0 | 0.00 | 0.00 | 0.00 | 70 | 1005.0 |
| 20260505025102 | 73 | 167 | 7.0 | 13.0 | 0.00 | 0.00 | 0.00 | 70 | 1005.0 |
| 20260505024902 | 73 | 181 | 7.0 | 13.0 | 0.00 | 0.00 | 0.00 | 70 | 1004.9 |
| 20260505024802 | 73 | 163 | 8.0 | 13.0 | 0.00 | 0.00 | 0.00 | 70 | 1005.0 |
| 20260505024702 | 73 | 171 | 7.0 | 14.0 | 0.00 | 0.00 | 0.00 | 70 | 1004.8 |
| 20260505024602 | 73 | 181 | 7.0 | 12.0 | 0.00 | 0.00 | 0.00 | 70 | 1004.8 |
| 20260505024503 | 73 | 183 | 7.0 | 18.0 | 0.00 | 0.00 | 0.00 | 70 | 1003.9 |
| 20260505024402 | 73 | 207 | 7.0 | 18.0 | 0.00 | 0.00 | 0.00 | 70 | 1004.8 |
| 20260505024301 | 73 | 182 | 7.0 | 18.0 | 0.00 | 0.00 | 0.00 | 70 | 1004.9 |
| 20260505024101 | 73 | 203 | 9.0 | 17.0 | 0.00 | 0.00 | 0.00 | 70 | 1004.8 |
| 20260505024001 | 73 | 169 | 7.0 | 17.0 | 0.00 | 0.00 | 0.00 | 70 | 1004.8 |
| 20260505023901 | 73 | 190 | 7.0 | 17.0 | 0.00 | 0.00 | 0.00 | 70 | 1004.8 |
| 20260505023802 | 73 | 171 | 8.0 | 17.0 | 0.00 | 0.00 | 0.00 | 70 | 1004.8 |
| 20260505023601 | 73 | 181 | 9.0 | 17.0 | 0.00 | 0.00 | 0.00 | 70 | 1004.8 |
| 20260505023501 | 73 | 177 | 9.0 | 17.0 | 0.00 | 0.00 | 0.00 | 70 | 1004.9 |
| 20260505023402 | 73 | 159 | 9.0 | 17.0 | 0.00 | 0.00 | 0.00 | 70 | 1004.9 |
| 20260505023301 | 73 | 215 | 8.0 | 17.0 | 0.00 | 0.00 | 0.00 | 70 | 1005.0 |
| 20260505023202 | 73 | 169 | 6.0 | 17.0 | 0.00 | 0.00 | 0.00 | 70 | 1005.0 |
| 20260505023101 | 73 | 190 | 6.0 | 17.0 | 0.00 | 0.00 | 0.00 | 70 | 1004.8 |
| 20260505023002 | 73 | 192 | 7.0 | 17.0 | 0.00 | 0.00 | 0.00 | 70 | 1004.9 |
| 20260505022901 | 73 | 159 | 7.0 | 17.0 | 0.00 | 0.00 | 0.00 | 70 | 1004.8 |
| 20260505022801 | 73 | 216 | 8.0 | 17.0 | 0.00 | 0.00 | 0.00 | 70 | 1004.9 |
| 20260505022702 | 73 | 175 | 7.0 | 14.0 | 0.00 | 0.00 | 0.00 | 69 | 1004.9 |
| 20260505022601 | 73 | 194 | 7.0 | 14.0 | 0.00 | 0.00 | 0.00 | 69 | 1005.0 |
| 20260505022502 | 73 | 185 | 8.0 | 14.0 | 0.00 | 0.00 | 0.00 | 69 | 1004.9 |
| 20260505022301 | 73 | 178 | 7.0 | 13.0 | 0.00 | 0.00 | 0.00 | 69 | 1004.8 |
| 20260505022202 | 73 | 146 | 6.0 | 12.0 | 0.00 | 0.00 | 0.00 | 69 | 1004.9 |
| 20260505022101 | 73 | 188 | 5.0 | 14.0 | 0.00 | 0.00 | 0.00 | 69 | 1004.9 |
| 20260505022001 | 73 | 192 | 5.0 | 14.0 | 0.00 | 0.00 | 0.00 | 69 | 1004.9 |
| 20260505021901 | 73 | 201 | 6.0 | 14.0 | 0.00 | 0.00 | 0.00 | 69 | 1004.9 |
| 20260505021803 | 73 | 205 | 8.0 | 14.0 | 0.00 | 0.00 | 0.00 | 69 | 1004.9 |
| 20260505021602 | 73 | 178 | 9.0 | 14.0 | 0.00 | 0.00 | 0.00 | 69 | 1004.7 |
| 20260505021503 | 73 | 160 | 9.0 | 14.0 | 0.00 | 0.00 | 0.00 | 69 | 1003.8 |
| 20260505021501 | 73 | 160 | 10.0 | 14.0 | 0.00 | 0.00 | 0.00 | 69 | 1004.7 |
| 20260505021401 | 73 | 180 | 10.0 | 15.0 | 0.00 | 0.00 | 0.00 | 69 | 1004.6 |
| 20260505021302 | 73 | 156 | 8.0 | 15.0 | 0.00 | 0.00 | 0.00 | 69 | 1004.6 |
| 20260505021202 | 73 | 161 | 8.0 | 15.0 | 0.00 | 0.00 | 0.00 | 69 | 1004.6 |
| 20260505021101 | 73 | 155 | 8.0 | 15.0 | 0.00 | 0.00 | 0.00 | 69 | 1004.6 |
| 20260505021001 | 73 | 188 | 7.0 | 16.0 | 0.00 | 0.00 | 0.00 | 69 | 1004.6 |
| 20260505020902 | 73 | 182 | 6.0 | 16.0 | 0.00 | 0.00 | 0.00 | 69 | 1004.6 |
| 20260505020702 | 73 | 165 | 6.0 | 16.0 | 0.00 | 0.00 | 0.00 | 69 | 1004.6 |
| 20260505020601 | 74 | 157 | 6.0 | 16.0 | 0.00 | 0.00 | 0.00 | 68 | 1004.6 |
| 20260505020501 | 74 | 168 | 6.0 | 16.0 | 0.00 | 0.00 | 0.00 | 68 | 1004.6 |
| 20260505020401 | 74 | 190 | 8.0 | 16.0 | 0.00 | 0.00 | 0.00 | 68 | 1004.6 |
| 20260505020302 | 74 | 193 | 9.0 | 16.0 | 0.00 | 0.00 | 0.00 | 68 | 1004.6 |
| 20260505020201 | 74 | 194 | 8.0 | 16.0 | 0.00 | 0.00 | 0.00 | 68 | 1004.7 |
| 20260505020101 | 74 | 134 | 7.0 | 15.0 | 0.00 | 0.00 | 0.00 | 68 | 1004.7 |
| 20260505020002 | 74 | 175 | 7.0 | 16.0 | 0.00 | 0.00 | 0.00 | 68 | 1003.9 |
| 20260505015800 | 74 | 213 | 7.0 | 14.0 | 0.00 | 0.00 | 0.00 | 68 | 1004.7 |
| 20260505015701 | 74 | 186 | 6.0 | 14.0 | 0.00 | 0.00 | 0.00 | 68 | 1004.6 |
| 20260505015600 | 74 | 217 | 5.0 | 14.0 | 0.00 | 0.00 | 0.00 | 68 | 1004.6 |
| 20260505015401 | 74 | 183 | 8.0 | 17.0 | 0.00 | 0.00 | 0.00 | 67 | 1004.6 |
| 20260505015300 | 74 | 201 | 9.0 | 17.0 | 0.00 | 0.00 | 0.00 | 67 | 1004.7 |
| 20260505015200 | 74 | 181 | 9.0 | 17.0 | 0.00 | 0.00 | 0.00 | 67 | 1004.6 |
| 20260505015100 | 74 | 200 | 8.0 | 17.0 | 0.00 | 0.00 | 0.00 | 67 | 1004.5 |
| 20260505014901 | 74 | 199 | 8.0 | 17.0 | 0.00 | 0.00 | 0.00 | 67 | 1004.5 |
| 20260505014800 | 74 | 195 | 9.0 | 17.0 | 0.00 | 0.00 | 0.00 | 67 | 1004.5 |
| 20260505014700 | 74 | 207 | 9.0 | 17.0 | 0.00 | 0.00 | 0.00 | 67 | 1004.6 |
| 20260505014601 | 74 | 189 | 9.0 | 16.0 | 0.00 | 0.00 | 0.00 | 67 | 1004.5 |
| 20260505014500 | 74 | 190 | 10.0 | 16.0 | 0.00 | 0.00 | 0.00 | 67 | 1004.6 |
| 20260505014400 | 74 | 188 | 8.0 | 16.0 | 0.00 | 0.00 | 0.00 | 67 | 1004.5 |
| 20260505014301 | 74 | 178 | 8.0 | 16.0 | 0.00 | 0.00 | 0.00 | 67 | 1004.5 |
| 20260505014200 | 74 | 169 | 9.0 | 16.0 | 0.00 | 0.00 | 0.00 | 67 | 1004.5 |
| 20260505014101 | 74 | 198 | 9.0 | 17.0 | 0.00 | 0.00 | 0.00 | 67 | 1004.7 |
| 20260505014000 | 74 | 200 | 8.0 | 16.0 | 0.00 | 0.00 | 0.00 | 67 | 1004.6 |
| 20260505013700 | 74 | 184 | 8.0 | 17.0 | 0.00 | 0.00 | 0.00 | 67 | 1004.6 |
| 20260505013600 | 74 | 163 | 9.0 | 17.0 | 0.00 | 0.00 | 0.00 | 67 | 1004.4 |
| 20260505013500 | 74 | 167 | 9.0 | 17.0 | 0.00 | 0.00 | 0.00 | 67 | 1004.5 |
| 20260505013400 | 74 | 184 | 8.0 | 19.0 | 0.00 | 0.00 | 0.00 | 67 | 1004.5 |
| 20260505013301 | 74 | 152 | 8.0 | 19.0 | 0.00 | 0.00 | 0.00 | 66 | 1004.5 |
| 20260505013200 | 74 | 191 | 8.0 | 19.0 | 0.00 | 0.00 | 0.00 | 66 | 1004.5 |
| 20260505013101 | 74 | 159 | 7.0 | 19.0 | 0.00 | 0.00 | 0.00 | 66 | 1003.8 |
| 20260505013000 | 74 | 207 | 9.0 | 19.0 | 0.00 | 0.00 | 0.00 | 66 | 1004.6 |
| 20260505012900 | 74 | 209 | 9.0 | 19.0 | 0.00 | 0.00 | 0.00 | 66 | 1004.5 |
| 20260505012700 | 74 | 170 | 9.0 | 19.0 | 0.00 | 0.00 | 0.00 | 66 | 1004.7 |
| 20260505012600 | 74 | 179 | 8.0 | 19.0 | 0.00 | 0.00 | 0.00 | 66 | 1004.4 |
| 20260505012500 | 74 | 180 | 8.0 | 18.0 | 0.00 | 0.00 | 0.00 | 66 | 1004.4 |
| 20260505012300 | 74 | 191 | 10.0 | 18.0 | 0.00 | 0.00 | 0.00 | 66 | 1004.6 |
| 20260505012002 | 74 | 194 | 9.0 | 18.0 | 0.00 | 0.00 | 0.00 | 66 | 1004.4 |
| 20260505011900 | 74 | 198 | 10.0 | 18.0 | 0.00 | 0.00 | 0.00 | 66 | 1004.4 |
| 20260505011800 | 74 | 209 | 9.0 | 18.0 | 0.00 | 0.00 | 0.00 | 66 | 1004.5 |
| 20260505011700 | 74 | 187 | 9.0 | 18.0 | 0.00 | 0.00 | 0.00 | 66 | 1004.3 |
| 20260505011601 | 74 | 196 | 9.0 | 18.0 | 0.00 | 0.00 | 0.00 | 66 | 1003.5 |
| 20260505011501 | 74 | 174 | 9.0 | 18.0 | 0.00 | 0.00 | 0.00 | 66 | 1004.4 |
| 20260505011300 | 74 | 169 | 9.0 | 20.0 | 0.00 | 0.00 | 0.00 | 66 | 1004.4 |
| 20260505011201 | 74 | 188 | 9.0 | 16.0 | 0.00 | 0.00 | 0.00 | 66 | 1004.3 |
| 20260505011101 | 74 | 210 | 9.0 | 16.0 | 0.00 | 0.00 | 0.00 | 66 | 1004.3 |
| 20260505010902 | 74 | 184 | 7.0 | 16.0 | 0.00 | 0.00 | 0.00 | 66 | 1004.3 |
| 20260505010801 | 75 | 201 | 8.0 | 16.0 | 0.00 | 0.00 | 0.00 | 66 | 1004.3 |
| 20260505010701 | 75 | 190 | 8.0 | 16.0 | 0.00 | 0.00 | 0.00 | 65 | 1004.3 |
| 20260505010600 | 75 | 194 | 9.0 | 16.0 | 0.00 | 0.00 | 0.00 | 65 | 1004.5 |
| 20260505010500 | 75 | 194 | 8.0 | 15.0 | 0.00 | 0.00 | 0.00 | 65 | 1004.4 |
| 20260505010401 | 75 | 175 | 9.0 | 15.0 | 0.00 | 0.00 | 0.00 | 66 | 1004.4 |
| 20260505010301 | 75 | 206 | 9.0 | 15.0 | 0.00 | 0.00 | 0.00 | 65 | 1004.5 |
| 20260505010200 | 75 | 168 | 9.0 | 15.0 | 0.00 | 0.00 | 0.00 | 65 | 1004.5 |
| 20260505010113 | 75 | 171 | 8.0 | 15.0 | 0.00 | 0.00 | 0.00 | 65 | 1003.6 |
| 20260505010100 | 75 | 171 | 8.0 | 15.0 | 0.00 | 0.00 | 0.00 | 65 | 1004.5 |
| 20260505010004 | 75 | 184 | 8.0 | 15.0 | 0.00 | 0.00 | 0.00 | 65 | 1003.6 |
| 20260505010002 | 75 | 184 | 9.0 | 15.0 | 0.00 | 0.00 | 0.00 | 65 | 1004.5 |
| 20260505005901 | 75 | 175 | 9.0 | 15.0 | 0.00 | 0.00 | 0.00 | 65 | 1004.6 |
| 20260505005801 | 75 | 165 | 9.0 | 15.0 | 0.00 | 0.00 | 0.00 | 65 | 1004.6 |
| 20260505005702 | 75 | 194 | 9.0 | 15.0 | 0.00 | 0.00 | 0.00 | 65 | 1004.7 |
| 20260505005403 | 75 | 190 | 8.0 | 15.0 | 0.00 | 0.00 | 0.00 | 65 | 1004.7 |
| 20260505005303 | 75 | 200 | 8.0 | 15.0 | 0.00 | 0.00 | 0.00 | 65 | 1004.6 |
| 20260505005202 | 75 | 157 | 8.0 | 15.0 | 0.00 | 0.00 | 0.00 | 65 | 1004.5 |
| 20260505005101 | 75 | 192 | 7.0 | 15.0 | 0.00 | 0.00 | 0.00 | 65 | 1004.6 |
| 20260505005001 | 75 | 186 | 7.0 | 15.0 | 0.00 | 0.00 | 0.00 | 65 | 1004.6 |
| 20260505004901 | 75 | 196 | 8.0 | 15.0 | 0.00 | 0.00 | 0.00 | 65 | 1004.6 |
| 20260505004701 | 75 | 182 | 8.0 | 15.0 | 0.00 | 0.00 | 0.00 | 65 | 1004.6 |
| 20260505004602 | 75 | 182 | 8.0 | 14.0 | 0.00 | 0.00 | 0.00 | 65 | 1004.6 |
| 20260505004502 | 75 | 183 | 7.0 | 14.0 | 0.00 | 0.00 | 0.00 | 65 | 1003.6 |
| 20260505004301 | 75 | 179 | 7.0 | 16.0 | 0.00 | 0.00 | 0.00 | 64 | 1004.6 |
| 20260505004202 | 75 | 215 | 6.0 | 16.0 | 0.00 | 0.00 | 0.00 | 64 | 1004.6 |
| 20260505004101 | 75 | 204 | 7.0 | 16.0 | 0.00 | 0.00 | 0.00 | 64 | 1004.7 |
| 20260505003901 | 76 | 188 | 10.0 | 19.0 | 0.00 | 0.00 | 0.00 | 65 | 1004.8 |
| 20260505003802 | 76 | 187 | 9.0 | 19.0 | 0.00 | 0.00 | 0.00 | 64 | 1004.8 |
| 20260505003501 | 76 | 171 | 8.0 | 19.0 | 0.00 | 0.00 | 0.00 | 64 | 1004.8 |
| 20260505003402 | 76 | 175 | 8.0 | 19.0 | 0.00 | 0.00 | 0.00 | 64 | 1004.8 |
| 20260505003301 | 76 | 183 | 10.0 | 19.0 | 0.00 | 0.00 | 0.00 | 64 | 1004.9 |
| 20260505003202 | 76 | 136 | 10.0 | 19.0 | 0.00 | 0.00 | 0.00 | 63 | 1004.9 |
| 20260505003001 | 76 | 182 | 7.0 | 20.0 | 0.00 | 0.00 | 0.00 | 64 | 1003.9 |
| 20260505002903 | 76 | 208 | 7.0 | 20.0 | 0.00 | 0.00 | 0.00 | 64 | 1004.6 |
| 20260505002801 | 76 | 205 | 8.0 | 20.0 | 0.00 | 0.00 | 0.00 | 64 | 1004.7 |
| 20260505002702 | 76 | 192 | 8.0 | 20.0 | 0.00 | 0.00 | 0.00 | 64 | 1004.7 |
| 20260505002502 | 76 | 198 | 8.0 | 20.0 | 0.00 | 0.00 | 0.00 | 63 | 1004.8 |
| 20260505002401 | 76 | 205 | 10.0 | 20.0 | 0.00 | 0.00 | 0.00 | 63 | 1004.7 |
| 20260505002303 | 76 | 185 | 10.0 | 20.0 | 0.00 | 0.00 | 0.00 | 63 | 1004.7 |
| 20260505002201 | 76 | 202 | 10.0 | 18.0 | 0.00 | 0.00 | 0.00 | 64 | 1004.7 |
| 20260505002101 | 76 | 219 | 9.0 | 18.0 | 0.00 | 0.00 | 0.00 | 64 | 1004.9 |
| 20260505002002 | 76 | 191 | 9.0 | 18.0 | 0.00 | 0.00 | 0.00 | 64 | 1004.9 |
| 20260505001802 | 76 | 188 | 9.0 | 18.0 | 0.00 | 0.00 | 0.00 | 64 | 1004.7 |
| 20260505001703 | 76 | 164 | 9.0 | 18.0 | 0.00 | 0.00 | 0.00 | 64 | 1004.7 |
| 20260505001601 | 76 | 190 | 10.0 | 18.0 | 0.00 | 0.00 | 0.00 | 64 | 1004.8 |
| 20260505001501 | 76 | 166 | 10.0 | 18.0 | 0.00 | 0.00 | 0.00 | 64 | 1003.8 |
| 20260505001401 | 76 | 195 | 9.0 | 18.0 | 0.00 | 0.00 | 0.00 | 64 | 1004.8 |
| 20260505001302 | 76 | 179 | 8.0 | 18.0 | 0.00 | 0.00 | 0.00 | 64 | 1004.8 |
| 20260505001201 | 76 | 194 | 7.0 | 16.0 | 0.00 | 0.00 | 0.00 | 64 | 1004.9 |
| 20260505001101 | 76 | 175 | 7.0 | 16.0 | 0.00 | 0.00 | 0.00 | 64 | 1004.9 |
| 20260505001002 | 76 | 201 | 8.0 | 16.0 | 0.00 | 0.00 | 0.00 | 64 | 1004.9 |
| 20260505000902 | 77 | 178 | 8.0 | 16.0 | 0.00 | 0.00 | 0.00 | 63 | 1004.9 |
| 20260505000801 | 77 | 205 | 8.0 | 16.0 | 0.00 | 0.00 | 0.00 | 63 | 1004.8 |
| 20260505000701 | 77 | 178 | 7.0 | 16.0 | 0.00 | 0.00 | 0.00 | 63 | 1004.9 |
| 20260505000602 | 77 | 207 | 8.0 | 15.0 | 0.00 | 0.00 | 0.00 | 63 | 1004.9 |
| 20260505000501 | 77 | 207 | 9.0 | 15.0 | 0.00 | 0.00 | 0.00 | 63 | 1004.9 |
| 20260505000401 | 77 | 196 | 9.0 | 15.0 | 0.00 | 0.00 | 0.00 | 63 | 1004.9 |
| 20260505000204 | 77 | 214 | 10.0 | 17.0 | 0.00 | 0.00 | 0.00 | 63 | 1004.8 |
| 20260505000002 | 77 | 162 | 8.0 | 17.0 | 0.00 | 0.00 | 0.00 | 63 | 1004.8 |
| 20260504235900 | 77 | 178 | 8.0 | 15.0 | 0.00 | 0.00 | 0.00 | 63 | 1004.7 |
| 20260504235800 | 77 | 191 | 9.0 | 15.0 | 0.00 | 0.00 | 0.00 | 63 | 1004.9 |
| 20260504235700 | 77 | 182 | 10.0 | 15.0 | 0.00 | 0.00 | 0.00 | 62 | 1004.8 |
| 20260504235601 | 77 | 183 | 10.0 | 23.0 | 0.00 | 0.00 | 0.00 | 62 | 1004.9 |
| 20260504235501 | 77 | 190 | 11.0 | 23.0 | 0.00 | 0.00 | 0.00 | 62 | 1004.7 |
| 20260504235300 | 77 | 155 | 10.0 | 23.0 | 0.00 | 0.00 | 0.00 | 62 | 1004.7 |
| 20260504235201 | 77 | 180 | 9.0 | 23.0 | 0.00 | 0.00 | 0.00 | 62 | 1004.8 |
| 20260504235100 | 77 | 179 | 9.0 | 23.0 | 0.00 | 0.00 | 0.00 | 62 | 1004.7 |
| 20260504235001 | 77 | 163 | 10.0 | 23.0 | 0.00 | 0.00 | 0.00 | 62 | 1004.9 |
| 20260504234902 | 77 | 171 | 11.0 | 21.0 | 0.00 | 0.00 | 0.00 | 62 | 1004.7 |
| 20260504234801 | 77 | 184 | 11.0 | 21.0 | 0.00 | 0.00 | 0.00 | 62 | 1004.7 |
| 20260504234701 | 77 | 180 | 11.0 | 18.0 | 0.00 | 0.00 | 0.00 | 62 | 1004.9 |
| 20260504234600 | 77 | 165 | 10.0 | 18.0 | 0.00 | 0.00 | 0.00 | 62 | 1004.0 |
| 20260504234501 | 77 | 191 | 10.0 | 18.0 | 0.00 | 0.00 | 0.00 | 62 | 1004.8 |
| 20260504234401 | 77 | 187 | 9.0 | 18.0 | 0.00 | 0.00 | 0.00 | 62 | 1004.8 |
| 20260504234300 | 77 | 198 | 10.0 | 18.0 | 0.00 | 0.00 | 0.00 | 62 | 1005.0 |
| 20260504234100 | 77 | 188 | 12.0 | 18.0 | 0.00 | 0.00 | 0.00 | 62 | 1005.0 |
| 20260504234000 | 77 | 174 | 10.0 | 16.0 | 0.00 | 0.00 | 0.00 | 63 | 1004.9 |
| 20260504233900 | 77 | 165 | 10.0 | 15.0 | 0.00 | 0.00 | 0.00 | 62 | 1004.9 |
| 20260504233800 | 77 | 178 | 10.0 | 19.0 | 0.00 | 0.00 | 0.00 | 62 | 1004.9 |
| 20260504233701 | 77 | 180 | 9.0 | 19.0 | 0.00 | 0.00 | 0.00 | 62 | 1004.9 |
| 20260504233602 | 77 | 178 | 9.0 | 19.0 | 0.00 | 0.00 | 0.00 | 62 | 1004.9 |
| 20260504233500 | 77 | 148 | 8.0 | 19.0 | 0.00 | 0.00 | 0.00 | 62 | 1004.9 |
| 20260504233401 | 77 | 142 | 8.0 | 19.0 | 0.00 | 0.00 | 0.00 | 62 | 1004.9 |
| 20260504233200 | 77 | 186 | 9.0 | 17.0 | 0.00 | 0.00 | 0.00 | 62 | 1005.0 |
| 20260504233111 | 77 | 198 | 10.0 | 17.0 | 0.00 | 0.00 | 0.00 | 62 | 1003.9 |
| 20260504233101 | 77 | 198 | 10.0 | 17.0 | 0.00 | 0.00 | 0.00 | 62 | 1004.9 |
| 20260504233000 | 77 | 158 | 10.0 | 17.0 | 0.00 | 0.00 | 0.00 | 61 | 1004.9 |
| 20260504232900 | 77 | 171 | 8.0 | 18.0 | 0.00 | 0.00 | 0.00 | 61 | 1005.0 |
| 20260504232801 | 78 | 192 | 7.0 | 21.0 | 0.00 | 0.00 | 0.00 | 61 | 1005.0 |
| 20260504232700 | 78 | 227 | 9.0 | 21.0 | 0.00 | 0.00 | 0.00 | 61 | 1005.0 |
| 20260504232600 | 78 | 178 | 11.0 | 21.0 | 0.00 | 0.00 | 0.00 | 60 | 1005.0 |
| 20260504232500 | 78 | 166 | 11.0 | 21.0 | 0.00 | 0.00 | 0.00 | 60 | 1005.0 |
| 20260504232403 | 78 | 182 | 11.0 | 19.0 | 0.00 | 0.00 | 0.00 | 60 | 1004.9 |
| 20260504232300 | 78 | 193 | 10.0 | 19.0 | 0.00 | 0.00 | 0.00 | 61 | 1005.1 |
| 20260504232200 | 78 | 184 | 10.0 | 19.0 | 0.00 | 0.00 | 0.00 | 61 | 1005.1 |
| 20260504232101 | 78 | 192 | 11.0 | 19.0 | 0.00 | 0.00 | 0.00 | 60 | 1005.1 |
| 20260504232000 | 78 | 175 | 12.0 | 20.0 | 0.00 | 0.00 | 0.00 | 60 | 1005.1 |
| 20260504231800 | 78 | 171 | 10.0 | 19.0 | 0.00 | 0.00 | 0.00 | 59 | 1005.1 |
| 20260504231700 | 78 | 171 | 11.0 | 19.0 | 0.00 | 0.00 | 0.00 | 59 | 1005.1 |
| 20260504231603 | 78 | 164 | 12.0 | 21.0 | 0.00 | 0.00 | 0.00 | 60 | 1005.0 |
| 20260504231600 | 78 | 164 | 12.0 | 21.0 | 0.00 | 0.00 | 0.00 | 60 | 1004.1 |
| 20260504231501 | 79 | 166 | 12.0 | 21.0 | 0.00 | 0.00 | 0.00 | 60 | 1005.3 |
| 20260504231400 | 79 | 215 | 11.0 | 21.0 | 0.00 | 0.00 | 0.00 | 60 | 1005.3 |
| 20260504231300 | 78 | 196 | 9.0 | 19.0 | 0.00 | 0.00 | 0.00 | 60 | 1005.2 |
| 20260504231200 | 79 | 188 | 10.0 | 17.0 | 0.00 | 0.00 | 0.00 | 60 | 1005.2 |
| 20260504231100 | 78 | 193 | 10.0 | 17.0 | 0.00 | 0.00 | 0.00 | 59 | 1005.3 |
| 20260504231000 | 78 | 199 | 9.0 | 17.0 | 0.00 | 0.00 | 0.00 | 59 | 1005.4 |
| 20260504230900 | 78 | 208 | 8.0 | 17.0 | 0.00 | 0.00 | 0.00 | 60 | 1005.2 |
| 20260504230800 | 78 | 142 | 8.0 | 20.0 | 0.00 | 0.00 | 0.00 | 60 | 1005.2 |
| 20260504230701 | 78 | 213 | 9.0 | 20.0 | 0.00 | 0.00 | 0.00 | 60 | 1005.3 |
| 20260504230501 | 79 | 191 | 7.0 | 18.0 | 0.00 | 0.00 | 0.00 | 60 | 1005.2 |
| 20260504230400 | 79 | 165 | 7.0 | 18.0 | 0.00 | 0.00 | 0.00 | 60 | 1005.4 |
| 20260504230301 | 79 | 153 | 7.0 | 18.0 | 0.00 | 0.00 | 0.00 | 59 | 1005.2 |
| 20260504230201 | 79 | 190 | 8.0 | 18.0 | 0.00 | 0.00 | 0.00 | 58 | 1005.2 |
| 20260504230116 | 79 | 193 | 9.0 | 18.0 | 0.00 | 0.00 | 0.00 | 58 | 1004.1 |
| 20260504230100 | 79 | 193 | 9.0 | 18.0 | 0.00 | 0.00 | 0.00 | 58 | 1005.1 |
| 20260504230000 | 79 | 182 | 10.0 | 18.0 | 0.00 | 0.00 | 0.00 | 58 | 1005.1 |
| 20260504225900 | 79 | 189 | 12.0 | 21.0 | 0.00 | 0.00 | 0.00 | 59 | 1005.1 |
| 20260504225800 | 79 | 197 | 10.0 | 21.0 | 0.00 | 0.00 | 0.00 | 59 | 1005.1 |
| 20260504225700 | 79 | 166 | 10.0 | 21.0 | 0.00 | 0.00 | 0.00 | 59 | 1005.2 |
| 20260504225600 | 79 | 163 | 10.0 | 21.0 | 0.00 | 0.00 | 0.00 | 59 | 1005.3 |
| 20260504225459 | 79 | 196 | 12.0 | 21.0 | 0.00 | 0.00 | 0.00 | 59 | 1005.3 |
| 20260504225359 | 79 | 208 | 13.0 | 21.0 | 0.00 | 0.00 | 0.00 | 58 | 1005.3 |
| 20260504225259 | 79 | 171 | 14.0 | 21.0 | 0.00 | 0.00 | 0.00 | 58 | 1005.5 |
| 20260504225159 | 79 | 174 | 12.0 | 21.0 | 0.00 | 0.00 | 0.00 | 58 | 1005.4 |
| 20260504225100 | 79 | 194 | 12.0 | 23.0 | 0.00 | 0.00 | 0.00 | 58 | 1005.6 |
| 20260504224959 | 79 | 171 | 11.0 | 21.0 | 0.00 | 0.00 | 0.00 | 58 | 1005.6 |
| 20260504224859 | 79 | 219 | 13.0 | 21.0 | 0.00 | 0.00 | 0.00 | 58 | 1005.4 |
| 20260504224801 | 79 | 176 | 12.0 | 21.0 | 0.00 | 0.00 | 0.00 | 58 | 1005.6 |
| 20260504224659 | 80 | 214 | 10.0 | 20.0 | 0.00 | 0.00 | 0.00 | 60 | 1005.5 |
| 20260504224626 | 79 | 209 | 8.0 | 22.0 | 0.00 | 0.00 | 0.00 | 60 | 1004.6 |
| 20260504224601 | 79 | 209 | 9.0 | 22.0 | 0.00 | 0.00 | 0.00 | 60 | 1005.5 |
| 20260504224459 | 79 | 175 | 10.0 | 21.0 | 0.00 | 0.00 | 0.00 | 59 | 1005.5 |
| 20260504224359 | 79 | 196 | 12.0 | 21.0 | 0.00 | 0.00 | 0.00 | 58 | 1005.6 |
| 20260504224300 | 79 | 186 | 13.0 | 21.0 | 0.00 | 0.00 | 0.00 | 58 | 1005.5 |
| 20260504224159 | 79 | 175 | 13.0 | 21.0 | 0.00 | 0.00 | 0.00 | 58 | 1005.6 |
| 20260504224059 | 79 | 186 | 13.0 | 21.0 | 0.00 | 0.00 | 0.00 | 59 | 1005.4 |
| 20260504224000 | 79 | 161 | 13.0 | 21.0 | 0.00 | 0.00 | 0.00 | 58 | 1005.6 |
| 20260504223900 | 79 | 203 | 14.0 | 21.0 | 0.00 | 0.00 | 0.00 | 58 | 1005.5 |
| 20260504223802 | 79 | 176 | 15.0 | 21.0 | 0.00 | 0.00 | 0.00 | 58 | 1005.4 |
| 20260504223659 | 79 | 169 | 14.0 | 21.0 | 0.00 | 0.00 | 0.00 | 58 | 1005.4 |
| 20260504223559 | 80 | 155 | 14.0 | 21.0 | 0.00 | 0.00 | 0.00 | 58 | 1005.4 |
| 20260504223459 | 80 | 178 | 12.0 | 21.0 | 0.00 | 0.00 | 0.00 | 58 | 1005.4 |
| 20260504223400 | 80 | 172 | 11.0 | 21.0 | 0.00 | 0.00 | 0.00 | 58 | 1005.3 |
| 20260504223159 | 79 | 198 | 10.0 | 18.0 | 0.00 | 0.00 | 0.00 | 59 | 1005.3 |
| 20260504223106 | 79 | 205 | 10.0 | 18.0 | 0.00 | 0.00 | 0.00 | 59 | 1004.4 |
| 20260504223100 | 79 | 205 | 10.0 | 18.0 | 0.00 | 0.00 | 0.00 | 59 | 1005.3 |
| 20260504222959 | 79 | 210 | 9.0 | 18.0 | 0.00 | 0.00 | 0.00 | 58 | 1005.4 |
| 20260504222859 | 79 | 184 | 9.0 | 18.0 | 0.00 | 0.00 | 0.00 | 58 | 1005.4 |
| 20260504222759 | 79 | 201 | 10.0 | 18.0 | 0.00 | 0.00 | 0.00 | 58 | 1005.3 |
| 20260504222559 | 79 | 224 | 12.0 | 19.0 | 0.00 | 0.00 | 0.00 | 58 | 1005.3 |
| 20260504222459 | 79 | 187 | 11.0 | 19.0 | 0.00 | 0.00 | 0.00 | 58 | 1005.4 |
| 20260504222300 | 80 | 180 | 10.0 | 22.0 | 0.00 | 0.00 | 0.00 | 57 | 1005.4 |
| 20260504222200 | 80 | 200 | 11.0 | 20.0 | 0.00 | 0.00 | 0.00 | 58 | 1005.5 |
| 20260504222100 | 80 | 177 | 10.0 | 20.0 | 0.00 | 0.00 | 0.00 | 58 | 1005.3 |
| 20260504221959 | 80 | 183 | 10.0 | 20.0 | 0.00 | 0.00 | 0.00 | 58 | 1005.4 |
| 20260504221900 | 80 | 188 | 9.0 | 20.0 | 0.00 | 0.00 | 0.00 | 57 | 1005.4 |
| 20260504221800 | 80 | 182 | 10.0 | 20.0 | 0.00 | 0.00 | 0.00 | 57 | 1005.4 |
| 20260504221701 | 80 | 188 | 11.0 | 20.0 | 0.00 | 0.00 | 0.00 | 57 | 1005.6 |
| 20260504221559 | 80 | 165 | 11.0 | 21.0 | 0.00 | 0.00 | 0.00 | 57 | 1004.7 |
| 20260504221500 | 80 | 179 | 12.0 | 21.0 | 0.00 | 0.00 | 0.00 | 57 | 1005.7 |
| 20260504221400 | 80 | 184 | 11.0 | 20.0 | 0.00 | 0.00 | 0.00 | 57 | 1005.6 |
| 20260504221200 | 80 | 167 | 9.0 | 20.0 | 0.00 | 0.00 | 0.00 | 57 | 1005.7 |
| 20260504221059 | 80 | 190 | 9.0 | 20.0 | 0.00 | 0.00 | 0.00 | 57 | 1005.6 |
| 20260504220959 | 80 | 185 | 10.0 | 20.0 | 0.00 | 0.00 | 0.00 | 57 | 1005.6 |
| 20260504220800 | 80 | 175 | 11.0 | 23.0 | 0.00 | 0.00 | 0.00 | 58 | 1006.0 |
| 20260504220701 | 80 | 200 | 12.0 | 23.0 | 0.00 | 0.00 | 0.00 | 57 | 1005.7 |
| 20260504220559 | 79 | 171 | 12.0 | 23.0 | 0.00 | 0.00 | 0.00 | 58 | 1005.6 |
| 20260504220500 | 79 | 167 | 12.0 | 23.0 | 0.00 | 0.00 | 0.00 | 57 | 1005.6 |
| 20260504220359 | 79 | 187 | 10.0 | 23.0 | 0.00 | 0.00 | 0.00 | 57 | 1005.7 |
| 20260504220259 | 79 | 196 | 11.0 | 23.0 | 0.00 | 0.00 | 0.00 | 57 | 1005.7 |
| 20260504220200 | 79 | 207 | 13.0 | 23.0 | 0.00 | 0.00 | 0.00 | 57 | 1005.9 |
| 20260504220059 | 80 | 182 | 13.0 | 23.0 | 0.00 | 0.00 | 0.00 | 57 | 1005.8 |
| 20260504220000 | 80 | 152 | 13.0 | 23.0 | 0.00 | 0.00 | 0.00 | 57 | 1005.8 |
| 20260504215900 | 80 | 162 | 13.0 | 20.0 | 0.00 | 0.00 | 0.00 | 57 | 1005.8 |
| 20260504215801 | 80 | 178 | 12.0 | 19.0 | 0.00 | 0.00 | 0.00 | 57 | 1005.7 |
| 20260504215659 | 80 | 165 | 10.0 | 21.0 | 0.00 | 0.00 | 0.00 | 57 | 1005.6 |
| 20260504215559 | 80 | 217 | 11.0 | 19.0 | 0.00 | 0.00 | 0.00 | 58 | 1005.8 |
| 20260504215500 | 79 | 175 | 12.0 | 19.0 | 0.00 | 0.00 | 0.00 | 57 | 1005.5 |
| 20260504215359 | 79 | 191 | 12.0 | 19.0 | 0.00 | 0.00 | 0.00 | 56 | 1005.7 |
| 20260504215259 | 80 | 171 | 13.0 | 19.0 | 0.00 | 0.00 | 0.00 | 56 | 1005.6 |
| 20260504215059 | 80 | 200 | 12.0 | 17.0 | 0.00 | 0.00 | 0.00 | 56 | 1005.9 |
| 20260504214900 | 80 | 176 | 11.0 | 19.0 | 0.00 | 0.00 | 0.00 | 57 | 1005.6 |
| 20260504214700 | 80 | 180 | 10.0 | 19.0 | 0.00 | 0.00 | 0.00 | 57 | 1005.7 |
| 20260504214600 | 80 | 180 | 11.0 | 19.0 | 0.00 | 0.00 | 0.00 | 56 | 1005.9 |
| 20260504214559 | 80 | 180 | 10.0 | 19.0 | 0.00 | 0.00 | 0.00 | 56 | 1005.0 |
| 20260504214500 | 80 | 157 | 11.0 | 19.0 | 0.00 | 0.00 | 0.00 | 56 | 1006.2 |
| 20260504214300 | 80 | 196 | 12.0 | 19.0 | 0.00 | 0.00 | 0.00 | 56 | 1005.9 |
| 20260504214159 | 80 | 157 | 12.0 | 19.0 | 0.00 | 0.00 | 0.00 | 56 | 1005.9 |
| 20260504214059 | 80 | 178 | 12.0 | 19.0 | 0.00 | 0.00 | 0.00 | 56 | 1006.0 |
| 20260504214000 | 80 | 167 | 13.0 | 19.0 | 0.00 | 0.00 | 0.00 | 56 | 1006.0 |
| 20260504213859 | 80 | 169 | 13.0 | 22.0 | 0.00 | 0.00 | 0.00 | 56 | 1006.0 |
| 20260504213759 | 80 | 157 | 11.0 | 22.0 | 0.00 | 0.00 | 0.00 | 56 | 1005.9 |
| 20260504213600 | 80 | 167 | 12.0 | 22.0 | 0.00 | 0.00 | 0.00 | 56 | 1005.8 |
| 20260504213459 | 80 | 184 | 11.0 | 22.0 | 0.00 | 0.00 | 0.00 | 57 | 1005.8 |
| 20260504213400 | 80 | 184 | 11.0 | 22.0 | 0.00 | 0.00 | 0.00 | 56 | 1005.8 |
| 20260504213300 | 80 | 194 | 12.0 | 22.0 | 0.00 | 0.00 | 0.00 | 56 | 1005.9 |
| 20260504213103 | 80 | 176 | 13.0 | 22.0 | 0.00 | 0.00 | 0.00 | 55 | 1005.1 |
| 20260504213101 | 80 | 176 | 14.0 | 22.0 | 0.00 | 0.00 | 0.00 | 55 | 1006.0 |
| 20260504213001 | 80 | 178 | 13.0 | 22.0 | 0.00 | 0.00 | 0.00 | 55 | 1006.0 |
| 20260504212859 | 80 | 161 | 11.0 | 18.0 | 0.00 | 0.00 | 0.00 | 55 | 1006.3 |
| 20260504212759 | 80 | 184 | 9.0 | 18.0 | 0.00 | 0.00 | 0.00 | 55 | 1006.2 |
| 20260504212659 | 80 | 195 | 9.0 | 18.0 | 0.00 | 0.00 | 0.00 | 55 | 1006.1 |
| 20260504212600 | 80 | 203 | 8.0 | 18.0 | 0.00 | 0.00 | 0.00 | 56 | 1006.2 |
| 20260504212459 | 80 | 219 | 9.0 | 18.0 | 0.00 | 0.00 | 0.00 | 56 | 1006.4 |
| 20260504212359 | 80 | 202 | 10.0 | 18.0 | 0.00 | 0.00 | 0.00 | 56 | 1006.1 |
| 20260504212259 | 80 | 226 | 11.0 | 21.0 | 0.00 | 0.00 | 0.00 | 56 | 1006.2 |
| 20260504212159 | 80 | 168 | 11.0 | 21.0 | 0.00 | 0.00 | 0.00 | 56 | 1006.2 |
| 20260504212000 | 80 | 185 | 10.0 | 24.0 | 0.00 | 0.00 | 0.00 | 56 | 1006.1 |
| 20260504211859 | 80 | 178 | 9.0 | 24.0 | 0.00 | 0.00 | 0.00 | 55 | 1006.5 |
| 20260504211759 | 80 | 201 | 11.0 | 24.0 | 0.00 | 0.00 | 0.00 | 55 | 1006.3 |
| 20260504211700 | 80 | 207 | 12.0 | 24.0 | 0.00 | 0.00 | 0.00 | 55 | 1006.1 |
| 20260504211602 | 80 | 193 | 13.0 | 24.0 | 0.00 | 0.00 | 0.00 | 55 | 1005.3 |
| 20260504211559 | 80 | 193 | 13.0 | 24.0 | 0.00 | 0.00 | 0.00 | 55 | 1006.2 |
| 20260504211459 | 80 | 204 | 14.0 | 26.0 | 0.00 | 0.00 | 0.00 | 56 | 1006.1 |
| 20260504211400 | 80 | 171 | 13.0 | 26.0 | 0.00 | 0.00 | 0.00 | 55 | 1006.4 |
| 20260504211259 | 80 | 180 | 11.0 | 26.0 | 0.00 | 0.00 | 0.00 | 56 | 1006.4 |
| 20260504211201 | 80 | 180 | 9.0 | 21.0 | 0.00 | 0.00 | 0.00 | 54 | 1006.3 |
| 20260504211059 | 80 | 224 | 9.0 | 21.0 | 0.00 | 0.00 | 0.00 | 54 | 1006.4 |
| 20260504210959 | 80 | 197 | 11.0 | 21.0 | 0.00 | 0.00 | 0.00 | 54 | 1006.4 |
| 20260504210859 | 80 | 161 | 13.0 | 21.0 | 0.00 | 0.00 | 0.00 | 55 | 1006.7 |
| 20260504210800 | 80 | 179 | 13.0 | 22.0 | 0.00 | 0.00 | 0.00 | 55 | 1006.6 |
| 20260504210601 | 80 | 187 | 12.0 | 22.0 | 0.00 | 0.00 | 0.00 | 55 | 1006.5 |
| 20260504210459 | 80 | 194 | 12.0 | 22.0 | 0.00 | 0.00 | 0.00 | 55 | 1006.6 |
| 20260504210359 | 80 | 202 | 13.0 | 22.0 | 0.00 | 0.00 | 0.00 | 55 | 1006.6 |
| 20260504210159 | 80 | 194 | 12.0 | 24.0 | 0.00 | 0.00 | 0.00 | 55 | 1006.7 |
| 20260504210104 | 80 | 171 | 12.0 | 23.0 | 0.00 | 0.00 | 0.00 | 54 | 1005.9 |
| 20260504210101 | 80 | 171 | 13.0 | 23.0 | 0.00 | 0.00 | 0.00 | 54 | 1006.8 |
| 20260504210003 | 80 | 192 | 13.0 | 23.0 | 0.00 | 0.00 | 0.00 | 54 | 1005.8 |
| 20260504205859 | 81 | 172 | 13.0 | 23.0 | 0.00 | 0.00 | 0.00 | 54 | 1006.6 |
| 20260504205759 | 81 | 149 | 11.0 | 23.0 | 0.00 | 0.00 | 0.00 | 54 | 1006.8 |
| 20260504205700 | 81 | 163 | 11.0 | 23.0 | 0.00 | 0.00 | 0.00 | 54 | 1006.7 |
| 20260504205558 | 81 | 190 | 10.0 | 23.0 | 0.00 | 0.00 | 0.00 | 54 | 1006.6 |
| 20260504205500 | 81 | 177 | 10.0 | 23.0 | 0.00 | 0.00 | 0.00 | 55 | 1006.7 |
| 20260504205400 | 81 | 178 | 11.0 | 23.0 | 0.00 | 0.00 | 0.00 | 53 | 1006.6 |
| 20260504205259 | 81 | 196 | 12.0 | 23.0 | 0.00 | 0.00 | 0.00 | 55 | 1006.7 |
| 20260504205200 | 81 | 175 | 12.0 | 22.0 | 0.00 | 0.00 | 0.00 | 55 | 1006.8 |
| 20260504205059 | 81 | 166 | 12.0 | 22.0 | 0.00 | 0.00 | 0.00 | 55 | 1006.8 |
| 20260504204900 | 81 | 161 | 12.0 | 22.0 | 0.00 | 0.00 | 0.00 | 55 | 1006.8 |
| 20260504204759 | 81 | 175 | 11.0 | 22.0 | 0.00 | 0.00 | 0.00 | 55 | 1006.8 |
| 20260504204700 | 81 | 143 | 12.0 | 22.0 | 0.00 | 0.00 | 0.00 | 56 | 1006.8 |
| 20260504204603 | 80 | 191 | 12.0 | 22.0 | 0.00 | 0.00 | 0.00 | 56 | 1005.9 |
| 20260504204601 | 80 | 191 | 13.0 | 22.0 | 0.00 | 0.00 | 0.00 | 56 | 1006.8 |
| 20260504204500 | 80 | 155 | 12.0 | 22.0 | 0.00 | 0.00 | 0.00 | 56 | 1006.8 |
| 20260504204400 | 80 | 187 | 10.0 | 22.0 | 0.00 | 0.00 | 0.00 | 56 | 1006.9 |
| 20260504204300 | 80 | 164 | 10.0 | 16.0 | 0.00 | 0.00 | 0.00 | 56 | 1006.8 |
| 20260504204200 | 80 | 179 | 11.0 | 21.0 | 0.00 | 0.00 | 0.00 | 56 | 1006.8 |
| 20260504204059 | 80 | 193 | 12.0 | 21.0 | 0.00 | 0.00 | 0.00 | 55 | 1006.9 |
| 20260504203859 | 80 | 166 | 10.0 | 21.0 | 0.00 | 0.00 | 0.00 | 54 | 1007.0 |
| 20260504203800 | 80 | 196 | 10.0 | 21.0 | 0.00 | 0.00 | 0.00 | 55 | 1007.0 |
| 20260504203559 | 80 | 200 | 12.0 | 23.0 | 0.00 | 0.00 | 0.00 | 54 | 1007.2 |
| 20260504203500 | 80 | 209 | 10.0 | 23.0 | 0.00 | 0.00 | 0.00 | 54 | 1007.1 |
| 20260504203359 | 80 | 143 | 9.0 | 23.0 | 0.00 | 0.00 | 0.00 | 54 | 1007.2 |
| 20260504203300 | 80 | 184 | 10.0 | 23.0 | 0.00 | 0.00 | 0.00 | 54 | 1007.2 |
| 20260504203159 | 80 | 190 | 12.0 | 23.0 | 0.00 | 0.00 | 0.00 | 54 | 1007.3 |
| 20260504203101 | 80 | 169 | 14.0 | 23.0 | 0.00 | 0.00 | 0.00 | 54 | 1007.2 |
| 20260504203059 | 80 | 169 | 14.0 | 23.0 | 0.00 | 0.00 | 0.00 | 54 | 1006.3 |
| 20260504202959 | 80 | 194 | 16.0 | 23.0 | 0.00 | 0.00 | 0.00 | 54 | 1007.4 |
| 20260504202859 | 80 | 172 | 13.0 | 23.0 | 0.00 | 0.00 | 0.00 | 55 | 1007.2 |
| 20260504202759 | 80 | 190 | 11.0 | 24.0 | 0.00 | 0.00 | 0.00 | 55 | 1007.3 |
| 20260504202700 | 80 | 167 | 10.0 | 21.0 | 0.00 | 0.00 | 0.00 | 55 | 1007.2 |
| 20260504202559 | 80 | 213 | 11.0 | 21.0 | 0.00 | 0.00 | 0.00 | 55 | 1007.2 |
| 20260504202400 | 80 | 123 | 11.0 | 21.0 | 0.00 | 0.00 | 0.00 | 55 | 1007.3 |
| 20260504202259 | 80 | 188 | 11.0 | 21.0 | 0.00 | 0.00 | 0.00 | 55 | 1007.4 |
| 20260504202200 | 80 | 169 | 12.0 | 21.0 | 0.00 | 0.00 | 0.00 | 55 | 1007.4 |
| 20260504202059 | 80 | 198 | 12.0 | 21.0 | 0.00 | 0.00 | 0.00 | 55 | 1007.4 |
| 20260504202000 | 80 | 181 | 12.0 | 21.0 | 0.00 | 0.00 | 0.00 | 54 | 1007.3 |
| 20260504201859 | 80 | 205 | 11.0 | 17.0 | 0.00 | 0.00 | 0.00 | 54 | 1007.4 |
| 20260504201700 | 80 | 168 | 12.0 | 17.0 | 0.00 | 0.00 | 0.00 | 54 | 1007.4 |
| 20260504201610 | 80 | 197 | 11.0 | 21.0 | 0.00 | 0.00 | 0.00 | 54 | 1006.5 |
| 20260504201600 | 80 | 197 | 12.0 | 21.0 | 0.00 | 0.00 | 0.00 | 54 | 1007.4 |
| 20260504201459 | 80 | 162 | 12.0 | 21.0 | 0.00 | 0.00 | 0.00 | 54 | 1007.5 |
| 20260504201402 | 80 | 188 | 11.0 | 21.0 | 0.00 | 0.00 | 0.00 | 54 | 1007.4 |
| 20260504201301 | 80 | 190 | 10.0 | 21.0 | 0.00 | 0.00 | 0.00 | 53 | 1007.7 |
| 20260504201059 | 80 | 193 | 7.0 | 21.0 | 0.00 | 0.00 | 0.00 | 54 | 1007.6 |
| 20260504201001 | 80 | 225 | 8.0 | 21.0 | 0.00 | 0.00 | 0.00 | 54 | 1007.5 |
| 20260504200900 | 80 | 194 | 10.0 | 21.0 | 0.00 | 0.00 | 0.00 | 55 | 1007.5 |
| 20260504200759 | 80 | 192 | 11.0 | 21.0 | 0.00 | 0.00 | 0.00 | 56 | 1007.5 |
| 20260504200700 | 80 | 207 | 11.0 | 21.0 | 0.00 | 0.00 | 0.00 | 55 | 1007.4 |
| 20260504200500 | 80 | 151 | 10.0 | 21.0 | 0.00 | 0.00 | 0.00 | 55 | 1007.6 |
| 20260504200400 | 79 | 169 | 10.0 | 21.0 | 0.00 | 0.00 | 0.00 | 55 | 1007.5 |
| 20260504200158 | 79 | 197 | 12.0 | 21.0 | 0.00 | 0.00 | 0.00 | 54 | 1007.8 |
| 20260504200104 | 79 | 165 | 12.0 | 21.0 | 0.00 | 0.00 | 0.00 | 55 | 1006.8 |
| 20260504200059 | 79 | 165 | 13.0 | 21.0 | 0.00 | 0.00 | 0.00 | 55 | 1007.7 |
| 20260504200000 | 79 | 179 | 13.0 | 21.0 | 0.00 | 0.00 | 0.00 | 53 | 1007.6 |
| 20260504195900 | 80 | 184 | 14.0 | 21.0 | 0.00 | 0.00 | 0.00 | 54 | 1007.8 |